Time,TemperatureF,DewpointF,PressureIn,WindDirection,WindDirectionDegrees,WindSpeedMPH,WindSpeedGustMPH,Humidity,HourlyPrecipIn,Conditions,Clouds,dailyrainin,SoftwareType,DateUTC
2013-01-25 00:01:00,11.9,5.5,30.66,SSW,201,0.0,1.0,75,0.00,,,0.00,Wunderground v.1.15,2013-01-25 05:01:00,
2013-01-25 00:02:00,11.8,5.4,30.65,West,268,0.0,1.0,75,0.00,,,0.00,Wunderground v.1.15,2013-01-25 05:02:00,
2013-01-25 00:03:00,11.8,5.4,30.66,West,268,0.0,1.0,75,0.00,,,0.00,Wunderground v.1.15,2013-01-25 05:03:00,
2013-01-25 00:06:00,11.7,5.3,30.66,West,264,1.0,1.0,75,0.00,,,0.00,Wunderground v.1.15,2013-01-25 05:06:00,
2013-01-25 00:07:00,11.7,5.3,30.66,WSW,248,1.0,1.0,75,0.00,,,0.00,Wunderground v.1.15,2013-01-25 05:07:00,
2013-01-25 00:09:00,11.6,5.5,30.66,WSW,244,2.0,2.0,76,0.00,,,0.00,Wunderground v.1.15,2013-01-25 05:09:00,
2013-01-25 00:12:00,11.6,5.5,30.65,WSW,246,0.0,1.0,76,0.00,,,0.00,Wunderground v.1.15,2013-01-25 05:12:00,
2013-01-25 00:15:00,11.5,5.7,30.65,WSW,246,0.0,1.0,77,0.00,,,0.00,Wunderground v.1.15,2013-01-25 05:15:00,
2013-01-25 00:17:00,11.5,5.7,30.66,SW,229,0.0,1.0,77,0.00,,,0.00,Wunderground v.1.15,2013-01-25 05:17:00,
2013-01-25 00:18:00,11.5,5.7,30.66,SW,221,1.0,1.0,77,0.00,,,0.00,Wunderground v.1.15,2013-01-25 05:18:00,
2013-01-25 00:21:00,11.4,5.6,30.65,SSW,200,0.0,1.0,77,0.00,,,0.00,Wunderground v.1.15,2013-01-25 05:21:00,
2013-01-25 00:23:00,11.4,5.6,30.65,SSW,200,0.0,1.0,77,0.00,,,0.00,Wunderground v.1.15,2013-01-25 05:23:00,
2013-01-25 00:24:00,11.4,5.6,30.65,SSW,213,1.0,1.0,77,0.00,,,0.00,Wunderground v.1.15,2013-01-25 05:24:00,
2013-01-25 00:25:00,11.4,5.3,30.65,SSW,213,0.0,1.0,76,0.00,,,0.00,Wunderground v.1.15,2013-01-25 05:25:00,
2013-01-25 00:26:00,11.4,5.0,30.65,WNW,296,1.0,3.0,76,0.00,,,0.00,weatherlink.com 1.10,2013-01-25 05:26:00,
2013-01-25 00:29:00,11.4,5.3,30.65,West,269,1.0,2.0,76,0.00,,,0.00,Wunderground v.1.15,2013-01-25 05:29:00,
2013-01-25 00:31:00,11.4,5.3,30.65,WSW,248,1.0,1.0,76,0.00,,,0.00,Wunderground v.1.15,2013-01-25 05:31:00,
2013-01-25 00:32:00,11.4,5.3,30.66,SSW,200,2.0,2.0,76,0.00,,,0.00,Wunderground v.1.15,2013-01-25 05:32:00,
2013-01-25 00:33:00,11.4,5.6,30.66,South,190,2.0,2.0,77,0.00,,,0.00,Wunderground v.1.15,2013-01-25 05:33:00,
2013-01-25 00:34:00,11.4,5.6,30.66,South,190,0.0,2.0,77,0.00,,,0.00,Wunderground v.1.15,2013-01-25 05:34:00,
2013-01-25 00:37:00,11.4,5.6,30.66,SW,227,0.0,2.0,77,0.00,,,0.00,Wunderground v.1.15,2013-01-25 05:37:00,
2013-01-25 00:38:00,11.4,5.6,30.65,SW,234,0.0,2.0,77,0.00,,,0.00,Wunderground v.1.15,2013-01-25 05:38:00,
2013-01-25 00:42:00,11.4,5.6,30.64,WNW,286,0.0,1.0,77,0.00,,,0.00,Wunderground v.1.15,2013-01-25 05:42:00,
2013-01-25 00:43:00,11.4,5.6,30.64,West,278,2.0,2.0,77,0.00,,,0.00,Wunderground v.1.15,2013-01-25 05:43:00,
2013-01-25 00:44:00,11.4,5.6,30.65,SE,134,2.0,2.0,77,0.00,,,0.00,Wunderground v.1.15,2013-01-25 05:44:00,
2013-01-25 00:48:00,11.5,5.7,30.65,SE,130,0.0,3.0,77,0.00,,,0.00,Wunderground v.1.15,2013-01-25 05:48:00,
2013-01-25 00:49:00,11.5,5.7,30.65,SE,130,0.0,3.0,77,0.00,,,0.00,Wunderground v.1.15,2013-01-25 05:49:00,
2013-01-25 00:51:00,11.6,5.8,30.65,SE,136,1.0,1.0,77,0.00,,,0.00,Wunderground v.1.15,2013-01-25 05:51:00,
2013-01-25 00:53:00,11.6,5.8,30.65,SE,140,0.0,1.0,77,0.00,,,0.00,Wunderground v.1.15,2013-01-25 05:53:00,
2013-01-25 00:54:00,11.6,5.8,30.64,SE,140,0.0,1.0,77,0.00,,,0.00,Wunderground v.1.15,2013-01-25 05:54:00,
2013-01-25 00:56:00,11.6,5.8,30.64,SE,128,1.0,1.0,77,0.00,,,0.00,Wunderground v.1.15,2013-01-25 05:56:00,
2013-01-25 00:57:00,11.6,5.8,30.64,SE,128,1.0,1.0,77,0.00,,,0.00,Wunderground v.1.15,2013-01-25 05:57:00,
2013-01-25 00:58:00,11.6,6.0,30.64,SE,128,1.0,2.0,77,0.00,,,0.00,weatherlink.com 1.10,2013-01-25 05:58:00,
2013-01-25 01:04:00,11.7,5.9,30.64,SW,233,0.0,3.0,77,0.00,,,0.00,Wunderground v.1.15,2013-01-25 06:04:00,
2013-01-25 01:05:00,11.7,5.9,30.65,SW,233,0.0,3.0,77,0.00,,,0.00,Wunderground v.1.15,2013-01-25 06:05:00,
2013-01-25 01:07:00,11.7,5.9,30.65,SW,233,0.0,3.0,77,0.00,,,0.00,Wunderground v.1.15,2013-01-25 06:07:00,
2013-01-25 01:09:00,11.7,5.9,30.65,West,259,0.0,3.0,77,0.00,,,0.00,Wunderground v.1.15,2013-01-25 06:09:00,
2013-01-25 01:10:00,11.7,5.9,30.65,West,265,0.0,1.0,77,0.00,,,0.00,Wunderground v.1.15,2013-01-25 06:10:00,
2013-01-25 01:11:00,11.7,5.9,30.65,West,265,0.0,1.0,77,0.00,,,0.00,Wunderground v.1.15,2013-01-25 06:11:00,
2013-01-25 01:13:00,11.7,5.9,30.65,West,261,1.0,1.0,77,0.00,,,0.00,Wunderground v.1.15,2013-01-25 06:13:00,
2013-01-25 01:16:00,11.7,5.9,30.65,WSW,247,1.0,1.0,77,0.00,,,0.00,Wunderground v.1.15,2013-01-25 06:16:00,
2013-01-25 01:18:00,11.7,5.9,30.65,WSW,250,0.0,1.0,77,0.00,,,0.00,Wunderground v.1.15,2013-01-25 06:18:00,
2013-01-25 01:22:00,11.7,5.6,30.65,SW,231,0.0,1.0,76,0.00,,,0.00,Wunderground v.1.15,2013-01-25 06:22:00,
2013-01-25 01:23:00,11.7,5.9,30.65,SW,227,0.0,1.0,77,0.00,,,0.00,Wunderground v.1.15,2013-01-25 06:23:00,
2013-01-25 01:25:00,11.7,5.9,30.65,SSW,212,0.0,1.0,77,0.00,,,0.00,Wunderground v.1.15,2013-01-25 06:25:00,
2013-01-25 01:27:00,11.7,5.9,30.64,SW,235,1.0,1.0,77,0.00,,,0.00,Wunderground v.1.15,2013-01-25 06:27:00,
2013-01-25 01:28:00,11.7,6.0,30.64,SW,236,0.0,2.0,77,0.00,,,0.00,weatherlink.com 1.10,2013-01-25 06:28:00,
2013-01-25 01:30:00,11.7,5.6,30.65,SW,231,0.0,0.0,76,0.00,,,0.00,Wunderground v.1.15,2013-01-25 06:30:00,
2013-01-25 01:33:00,11.7,5.6,30.65,SW,232,0.0,0.0,76,0.00,,,0.00,Wunderground v.1.15,2013-01-25 06:33:00,
2013-01-25 01:34:00,11.7,5.6,30.65,SW,232,0.0,0.0,76,0.00,,,0.00,Wunderground v.1.15,2013-01-25 06:34:00,
2013-01-25 01:36:00,11.7,5.6,30.65,SW,234,0.0,0.0,76,0.00,,,0.00,Wunderground v.1.15,2013-01-25 06:36:00,
2013-01-25 01:40:00,11.7,5.3,30.65,SW,231,0.0,0.0,75,0.00,,,0.00,Wunderground v.1.15,2013-01-25 06:40:00,
2013-01-25 01:42:00,11.7,5.6,30.65,SW,231,0.0,0.0,76,0.00,,,0.00,Wunderground v.1.15,2013-01-25 06:42:00,
2013-01-25 01:43:00,11.7,5.6,30.65,SW,231,0.0,0.0,76,0.00,,,0.00,Wunderground v.1.15,2013-01-25 06:43:00,
2013-01-25 01:44:00,11.7,5.6,30.65,SW,231,0.0,0.0,76,0.00,,,0.00,Wunderground v.1.15,2013-01-25 06:44:00,
2013-01-25 01:47:00,11.8,5.7,30.65,SW,231,0.0,0.0,76,0.00,,,0.00,Wunderground v.1.15,2013-01-25 06:47:00,
2013-01-25 01:49:00,11.8,5.7,30.65,SW,231,0.0,0.0,76,0.00,,,0.00,Wunderground v.1.15,2013-01-25 06:49:00,
2013-01-25 01:50:00,11.8,5.7,30.65,SW,231,0.0,0.0,76,0.00,,,0.00,Wunderground v.1.15,2013-01-25 06:50:00,
2013-01-25 01:55:00,11.9,5.5,30.66,SW,231,0.0,0.0,75,0.00,,,0.00,Wunderground v.1.15,2013-01-25 06:55:00,
2013-01-25 01:56:00,11.9,5.5,30.66,SW,232,0.0,0.0,75,0.00,,,0.00,Wunderground v.1.15,2013-01-25 06:56:00,
2013-01-25 01:57:00,11.9,5.5,30.66,SW,232,0.0,0.0,75,0.00,,,0.00,Wunderground v.1.15,2013-01-25 06:57:00,
2013-01-25 02:01:00,11.9,5.8,30.66,WSW,241,0.0,0.0,76,0.00,,,0.00,Wunderground v.1.15,2013-01-25 07:01:00,
2013-01-25 02:02:00,11.9,5.8,30.66,WSW,241,0.0,0.0,76,0.00,,,0.00,Wunderground v.1.15,2013-01-25 07:02:00,
2013-01-25 02:06:00,12.0,5.6,30.66,WSW,241,0.0,1.0,75,0.00,,,0.00,Wunderground v.1.15,2013-01-25 07:06:00,
2013-01-25 02:07:00,12.0,5.6,30.67,WSW,241,0.0,1.0,75,0.00,,,0.00,Wunderground v.1.15,2013-01-25 07:07:00,
2013-01-25 02:11:00,12.1,6.0,30.66,WSW,245,0.0,2.0,76,0.00,,,0.00,Wunderground v.1.15,2013-01-25 07:11:00,
2013-01-25 02:12:00,12.1,6.0,30.66,WSW,246,0.0,2.0,76,0.00,,,0.00,Wunderground v.1.15,2013-01-25 07:12:00,
2013-01-25 02:16:00,12.2,6.1,30.66,WSW,240,0.0,2.0,76,0.00,,,0.00,Wunderground v.1.15,2013-01-25 07:16:00,
2013-01-25 02:17:00,12.2,6.1,30.66,SW,236,1.0,2.0,76,0.00,,,0.00,Wunderground v.1.15,2013-01-25 07:17:00,
2013-01-25 02:21:00,12.3,6.2,30.66,WSW,240,0.0,1.0,76,0.00,,,0.00,Wunderground v.1.15,2013-01-25 07:21:00,
2013-01-25 02:22:00,12.3,5.9,30.66,WSW,240,0.0,1.0,75,0.00,,,0.00,Wunderground v.1.15,2013-01-25 07:22:00,
2013-01-25 02:23:00,12.3,5.9,30.66,WSW,240,0.0,1.0,75,0.00,,,0.00,Wunderground v.1.15,2013-01-25 07:23:00,
2013-01-25 02:27:00,12.4,6.0,30.65,SSW,205,0.0,2.0,75,0.00,,,0.00,Wunderground v.1.15,2013-01-25 07:27:00,
2013-01-25 02:28:00,12.5,6.1,30.64,SSW,201,0.0,2.0,75,0.00,,,0.00,Wunderground v.1.15,2013-01-25 07:28:00,
2013-01-25 02:32:00,12.6,6.2,30.65,SSE,161,1.0,5.0,75,0.00,,,0.00,Wunderground v.1.15,2013-01-25 07:32:00,
2013-01-25 02:33:00,12.6,6.2,30.65,SSE,162,1.0,5.0,75,0.00,,,0.00,Wunderground v.1.15,2013-01-25 07:33:00,
2013-01-25 02:34:00,12.6,6.2,30.65,SSE,165,2.0,5.0,75,0.00,,,0.00,Wunderground v.1.15,2013-01-25 07:34:00,
2013-01-25 02:38:00,12.9,5.3,30.65,South,178,0.0,5.0,71,0.00,,,0.00,Wunderground v.1.15,2013-01-25 07:38:00,
2013-01-25 02:39:00,13.0,5.4,30.65,SSE,156,1.0,5.0,71,0.00,,,0.00,Wunderground v.1.15,2013-01-25 07:39:00,
2013-01-25 02:43:00,13.2,5.2,30.65,SSE,157,3.0,4.0,70,0.00,,,0.00,Wunderground v.1.15,2013-01-25 07:43:00,
2013-01-25 02:44:00,13.2,5.2,30.65,SSE,160,2.0,5.0,70,0.00,,,0.00,Wunderground v.1.15,2013-01-25 07:44:00,
2013-01-25 02:48:00,13.4,5.1,30.64,SSW,197,1.0,5.0,69,0.00,,,0.00,Wunderground v.1.15,2013-01-25 07:48:00,
2013-01-25 02:49:00,13.4,5.1,30.64,South,178,2.0,5.0,69,0.00,,,0.00,Wunderground v.1.15,2013-01-25 07:49:00,
2013-01-25 02:53:00,13.5,5.5,30.65,South,176,3.0,6.0,70,0.00,,,0.00,Wunderground v.1.15,2013-01-25 07:53:00,
2013-01-25 02:54:00,13.5,5.5,30.65,SSE,161,3.0,6.0,70,0.00,,,0.00,Wunderground v.1.15,2013-01-25 07:54:00,
2013-01-25 02:55:00,13.5,5.5,30.65,SSE,163,2.0,6.0,70,0.00,,,0.00,Wunderground v.1.15,2013-01-25 07:55:00,
2013-01-25 02:59:00,13.5,5.8,30.66,WSW,241,1.0,6.0,71,0.00,,,0.00,Wunderground v.1.15,2013-01-25 07:59:00,
2013-01-25 03:00:00,13.5,5.5,30.66,WSW,250,2.0,3.0,70,0.00,,,0.00,Wunderground v.1.15,2013-01-25 08:00:00,
2013-01-25 03:04:00,13.5,5.5,30.65,SE,140,4.0,4.0,70,0.00,,,0.00,Wunderground v.1.15,2013-01-25 08:04:00,
2013-01-25 03:05:00,13.5,5.5,30.65,SE,130,3.0,5.0,70,0.00,,,0.00,Wunderground v.1.15,2013-01-25 08:05:00,
2013-01-25 03:09:00,13.5,5.5,30.65,South,171,1.0,5.0,70,0.00,,,0.00,Wunderground v.1.15,2013-01-25 08:09:00,
2013-01-25 03:10:00,13.5,5.5,30.65,South,182,1.0,1.0,70,0.00,,,0.00,Wunderground v.1.15,2013-01-25 08:10:00,
2013-01-25 03:11:00,13.5,5.2,30.65,SW,226,1.0,2.0,69,0.00,,,0.00,Wunderground v.1.15,2013-01-25 08:11:00,
2013-01-25 03:15:00,13.5,5.5,30.65,WSW,253,0.0,3.0,70,0.00,,,0.00,Wunderground v.1.15,2013-01-25 08:15:00,
2013-01-25 03:16:00,13.5,5.2,30.65,South,179,1.0,3.0,69,0.00,,,0.00,Wunderground v.1.15,2013-01-25 08:16:00,
2013-01-25 03:20:00,13.5,5.2,30.64,SSE,157,1.0,1.0,69,0.00,,,0.00,Wunderground v.1.15,2013-01-25 08:20:00,
2013-01-25 03:21:00,13.5,5.2,30.65,SSE,153,1.0,3.0,69,0.00,,,0.00,Wunderground v.1.15,2013-01-25 08:21:00,
2013-01-25 03:22:00,13.6,5.3,30.65,SSE,150,1.0,3.0,69,0.00,,,0.00,Wunderground v.1.15,2013-01-25 08:22:00,
2013-01-25 03:25:00,13.6,5.0,30.65,SSW,211,0.0,3.0,68,0.00,,,0.00,Wunderground v.1.15,2013-01-25 08:25:00,
2013-01-25 03:26:00,13.6,5.0,30.65,SSW,211,0.0,3.0,68,0.00,,,0.00,Wunderground v.1.15,2013-01-25 08:26:00,
2013-01-25 03:28:00,13.6,5.0,30.65,SW,218,0.0,3.0,68,0.00,,,0.00,Wunderground v.1.15,2013-01-25 08:28:00,
2013-01-25 03:30:00,13.7,5.1,30.66,SSE,168,0.0,0.0,68,0.00,,,0.00,Wunderground v.1.15,2013-01-25 08:30:00,
2013-01-25 03:31:00,13.7,5.1,30.66,SSE,168,0.0,0.0,68,0.00,,,0.00,Wunderground v.1.15,2013-01-25 08:31:00,
2013-01-25 03:33:00,13.7,4.8,30.65,SSE,168,0.0,1.0,67,0.00,,,0.00,Wunderground v.1.15,2013-01-25 08:33:00,
2013-01-25 03:35:00,13.7,4.8,30.65,SSE,162,3.0,4.0,67,0.00,,,0.00,Wunderground v.1.15,2013-01-25 08:35:00,
2013-01-25 03:36:00,13.7,4.8,30.65,SSE,159,4.0,4.0,67,0.00,,,0.00,Wunderground v.1.15,2013-01-25 08:36:00,
2013-01-25 03:38:00,13.7,4.8,30.65,SSW,192,4.0,6.0,67,0.00,,,0.00,Wunderground v.1.15,2013-01-25 08:38:00,
2013-01-25 03:41:00,13.7,4.8,30.65,SSE,165,1.0,4.0,67,0.00,,,0.00,Wunderground v.1.15,2013-01-25 08:41:00,
2013-01-25 03:44:00,13.7,4.4,30.65,South,171,4.0,5.0,66,0.00,,,0.00,Wunderground v.1.15,2013-01-25 08:44:00,
2013-01-25 03:46:00,13.8,4.5,30.64,SE,132,3.0,5.0,66,0.00,,,0.00,Wunderground v.1.15,2013-01-25 08:46:00,
2013-01-25 03:50:00,13.8,4.5,30.64,SSE,155,3.0,5.0,66,0.00,,,0.00,Wunderground v.1.15,2013-01-25 08:50:00,
2013-01-25 03:51:00,13.9,4.6,30.63,SSE,148,3.0,5.0,66,0.00,,,0.00,Wunderground v.1.15,2013-01-25 08:51:00,
2013-01-25 03:55:00,13.9,4.3,30.63,SSE,152,1.0,5.0,65,0.00,,,0.00,Wunderground v.1.15,2013-01-25 08:55:00,
2013-01-25 03:56:00,13.9,4.3,30.63,SE,142,2.0,5.0,65,0.00,,,0.00,Wunderground v.1.15,2013-01-25 08:56:00,
2013-01-25 04:01:00,13.9,4.0,30.64,SE,133,4.0,9.0,64,0.00,,,0.00,Wunderground v.1.15,2013-01-25 09:01:00,
2013-01-25 04:02:00,13.9,4.3,30.64,SSE,168,6.0,9.0,65,0.00,,,0.00,Wunderground v.1.15,2013-01-25 09:02:00,
2013-01-25 04:07:00,14.0,4.4,30.64,SSE,165,7.0,10.0,65,0.00,,,0.00,Wunderground v.1.15,2013-01-25 09:07:00,
2013-01-25 04:09:00,14.0,4.1,30.64,West,267,1.0,10.0,64,0.00,,,0.00,Wunderground v.1.15,2013-01-25 09:09:00,
2013-01-25 04:12:00,14.0,4.1,30.64,South,169,4.0,6.0,64,0.00,,,0.00,Wunderground v.1.15,2013-01-25 09:12:00,
2013-01-25 04:13:00,14.0,4.1,30.64,South,179,3.0,6.0,64,0.00,,,0.00,Wunderground v.1.15,2013-01-25 09:13:00,
2013-01-25 04:14:00,14.0,4.1,30.65,SSE,159,3.0,6.0,64,0.00,,,0.00,Wunderground v.1.15,2013-01-25 09:14:00,
2013-01-25 04:17:00,14.0,3.7,30.65,SE,132,2.0,6.0,63,0.00,,,0.00,Wunderground v.1.15,2013-01-25 09:17:00,
2013-01-25 04:18:00,14.0,4.1,30.64,South,175,2.0,6.0,64,0.00,,,0.00,Wunderground v.1.15,2013-01-25 09:18:00,
2013-01-25 04:20:00,14.0,4.1,30.64,SSE,167,7.0,8.0,64,0.00,,,0.00,Wunderground v.1.15,2013-01-25 09:20:00,
2013-01-25 04:22:00,14.1,4.1,30.65,SSE,158,5.0,8.0,64,0.00,,,0.00,Wunderground v.1.15,2013-01-25 09:22:00,
2013-01-25 04:23:00,14.1,3.8,30.64,SSW,197,4.0,8.0,63,0.00,,,0.00,Wunderground v.1.15,2013-01-25 09:23:00,
2013-01-25 04:24:00,14.1,3.8,30.64,SSE,165,6.0,8.0,63,0.00,,,0.00,Wunderground v.1.15,2013-01-25 09:24:00,
2013-01-25 04:25:00,14.1,3.8,30.64,SSE,157,4.0,8.0,63,0.00,,,0.00,Wunderground v.1.15,2013-01-25 09:25:00,
2013-01-25 04:27:00,14.1,3.8,30.64,SE,143,3.0,8.0,63,0.00,,,0.00,Wunderground v.1.15,2013-01-25 09:27:00,
2013-01-25 04:28:00,14.1,3.8,30.64,SE,143,4.0,8.0,63,0.00,,,0.00,Wunderground v.1.15,2013-01-25 09:28:00,
2013-01-25 04:29:00,14.1,3.8,30.64,SSE,152,5.0,8.0,63,0.00,,,0.00,Wunderground v.1.15,2013-01-25 09:29:00,
2013-01-25 04:30:00,14.1,3.8,30.64,SSE,167,3.0,5.0,63,0.00,,,0.00,Wunderground v.1.15,2013-01-25 09:30:00,
2013-01-25 04:33:00,14.1,3.8,30.64,SE,134,3.0,8.0,63,0.00,,,0.00,Wunderground v.1.15,2013-01-25 09:33:00,
2013-01-25 04:34:00,14.1,4.1,30.64,SSE,150,3.0,8.0,64,0.00,,,0.00,Wunderground v.1.15,2013-01-25 09:34:00,
2013-01-25 04:35:00,14.1,3.8,30.64,SE,141,2.0,8.0,63,0.00,,,0.00,Wunderground v.1.15,2013-01-25 09:35:00,
2013-01-25 04:38:00,14.1,3.8,30.63,SSE,163,5.0,8.0,63,0.00,,,0.00,Wunderground v.1.15,2013-01-25 09:38:00,
2013-01-25 04:39:00,14.1,3.8,30.64,SE,124,4.0,8.0,63,0.00,,,0.00,Wunderground v.1.15,2013-01-25 09:39:00,
2013-01-25 04:40:00,14.1,3.8,30.64,SSW,198,5.0,5.0,63,0.00,,,0.00,Wunderground v.1.15,2013-01-25 09:40:00,
2013-01-25 04:43:00,14.1,3.8,30.64,SSE,155,1.0,6.0,63,0.00,,,0.00,Wunderground v.1.15,2013-01-25 09:43:00,
2013-01-25 04:45:00,14.1,4.1,30.63,South,173,3.0,6.0,64,0.00,,,0.00,Wunderground v.1.15,2013-01-25 09:45:00,
2013-01-25 04:49:00,14.1,3.8,30.64,West,261,0.0,6.0,63,0.00,,,0.00,Wunderground v.1.15,2013-01-25 09:49:00,
2013-01-25 04:50:00,14.2,3.9,30.64,SSW,213,2.0,4.0,63,0.00,,,0.00,Wunderground v.1.15,2013-01-25 09:50:00,
2013-01-25 04:51:00,14.2,3.9,30.64,South,177,3.0,4.0,63,0.00,,,0.00,Wunderground v.1.15,2013-01-25 09:51:00,
2013-01-25 04:54:00,14.3,3.6,30.64,SSE,155,2.0,8.0,62,0.00,,,0.00,Wunderground v.1.15,2013-01-25 09:54:00,
2013-01-25 04:55:00,14.3,3.6,30.64,SSE,154,1.0,8.0,62,0.00,,,0.00,Wunderground v.1.15,2013-01-25 09:55:00,
2013-01-25 04:56:00,14.3,3.6,30.64,SSE,150,2.0,8.0,62,0.00,,,0.00,Wunderground v.1.15,2013-01-25 09:56:00,
2013-01-25 05:00:00,14.4,3.4,30.64,SE,143,2.0,4.0,61,0.00,,,0.00,Wunderground v.1.15,2013-01-25 10:00:00,
2013-01-25 05:01:00,14.4,3.4,30.63,South,173,3.0,4.0,61,0.00,,,0.00,Wunderground v.1.15,2013-01-25 10:01:00,
2013-01-25 05:05:00,14.4,3.4,30.63,South,169,2.0,5.0,61,0.00,,,0.00,Wunderground v.1.15,2013-01-25 10:05:00,
2013-01-25 05:06:00,14.4,3.4,30.63,South,171,2.0,6.0,61,0.00,,,0.00,Wunderground v.1.15,2013-01-25 10:06:00,
2013-01-25 05:10:00,14.4,3.4,30.64,South,180,3.0,7.0,61,0.00,,,0.00,Wunderground v.1.15,2013-01-25 10:10:00,
2013-01-25 05:11:00,14.4,3.4,30.64,SSW,202,3.0,7.0,61,0.00,,,0.00,Wunderground v.1.15,2013-01-25 10:11:00,
2013-01-25 05:12:00,14.4,3.4,30.64,South,180,3.0,7.0,61,0.00,,,0.00,Wunderground v.1.15,2013-01-25 10:12:00,
2013-01-25 05:16:00,14.4,3.0,30.64,SE,146,5.0,8.0,60,0.00,,,0.00,Wunderground v.1.15,2013-01-25 10:16:00,
2013-01-25 05:17:00,14.5,2.8,30.64,South,184,3.0,8.0,59,0.00,,,0.00,Wunderground v.1.15,2013-01-25 10:17:00,
2013-01-25 05:21:00,14.5,2.4,30.64,South,189,4.0,7.0,58,0.00,,,0.00,Wunderground v.1.15,2013-01-25 10:21:00,
2013-01-25 05:22:00,14.5,2.0,30.64,SE,146,2.0,7.0,58,0.00,,,0.00,weatherlink.com 1.10,2013-01-25 10:22:00,
2013-01-25 05:27:00,14.6,2.1,30.64,South,182,6.0,10.0,57,0.00,,,0.00,Wunderground v.1.15,2013-01-25 10:27:00,
2013-01-25 05:32:00,14.5,2.0,30.63,SE,145,4.0,7.0,57,0.00,,,0.00,Wunderground v.1.15,2013-01-25 10:32:00,
2013-01-25 05:33:00,14.5,2.0,30.63,SSE,164,6.0,7.0,57,0.00,,,0.00,Wunderground v.1.15,2013-01-25 10:33:00,
2013-01-25 05:37:00,14.5,2.0,30.62,South,173,2.0,7.0,57,0.00,,,0.00,Wunderground v.1.15,2013-01-25 10:37:00,
2013-01-25 05:39:00,14.5,2.0,30.62,SSE,162,5.0,7.0,57,0.00,,,0.00,Wunderground v.1.15,2013-01-25 10:39:00,
2013-01-25 05:42:00,14.5,2.0,30.62,SSE,148,3.0,7.0,57,0.00,,,0.00,Wunderground v.1.15,2013-01-25 10:42:00,
2013-01-25 05:43:00,14.4,1.9,30.62,South,173,2.0,7.0,57,0.00,,,0.00,Wunderground v.1.15,2013-01-25 10:43:00,
2013-01-25 05:44:00,14.4,1.9,30.62,South,186,5.0,7.0,57,0.00,,,0.00,Wunderground v.1.15,2013-01-25 10:44:00,
2013-01-25 05:47:00,14.4,1.9,30.62,SSE,149,3.0,7.0,57,0.00,,,0.00,Wunderground v.1.15,2013-01-25 10:47:00,
2013-01-25 05:48:00,14.4,1.9,30.62,SSE,155,2.0,7.0,57,0.00,,,0.00,Wunderground v.1.15,2013-01-25 10:48:00,
2013-01-25 05:49:00,14.4,1.9,30.62,South,182,5.0,7.0,57,0.00,,,0.00,Wunderground v.1.15,2013-01-25 10:49:00,
2013-01-25 05:52:00,14.4,1.9,30.62,South,174,5.0,7.0,57,0.00,,,0.00,Wunderground v.1.15,2013-01-25 10:52:00,
2013-01-25 05:53:00,14.4,1.9,30.62,South,178,2.0,7.0,57,0.00,,,0.00,Wunderground v.1.15,2013-01-25 10:53:00,
2013-01-25 05:55:00,14.4,1.9,30.63,SSW,210,0.0,7.0,57,0.00,,,0.00,Wunderground v.1.15,2013-01-25 10:55:00,
2013-01-25 05:58:00,14.4,1.9,30.63,SSE,153,3.0,7.0,57,0.00,,,0.00,Wunderground v.1.15,2013-01-25 10:58:00,
2013-01-25 05:59:00,14.4,1.9,30.63,SSE,161,4.0,7.0,57,0.00,,,0.00,Wunderground v.1.15,2013-01-25 10:59:00,
2013-01-25 06:00:00,14.4,1.9,30.63,SSE,150,4.0,6.0,57,0.00,,,0.00,Wunderground v.1.15,2013-01-25 11:00:00,
2013-01-25 06:03:00,14.4,1.9,30.63,SSE,165,3.0,6.0,57,0.00,,,0.00,Wunderground v.1.15,2013-01-25 11:03:00,
2013-01-25 06:04:00,14.4,1.9,30.63,SSE,150,4.0,6.0,57,0.00,,,0.00,Wunderground v.1.15,2013-01-25 11:04:00,
2013-01-25 06:05:00,14.4,1.5,30.62,SSE,148,4.0,6.0,56,0.00,,,0.00,Wunderground v.1.15,2013-01-25 11:05:00,
2013-01-25 06:08:00,14.4,1.9,30.63,SSE,163,5.0,7.0,57,0.00,,,0.00,Wunderground v.1.15,2013-01-25 11:08:00,
2013-01-25 06:09:00,14.3,1.8,30.64,SSE,168,3.0,7.0,57,0.00,,,0.00,Wunderground v.1.15,2013-01-25 11:09:00,
2013-01-25 06:10:00,14.4,1.9,30.64,South,180,4.0,5.0,57,0.00,,,0.00,Wunderground v.1.15,2013-01-25 11:10:00,
2013-01-25 06:13:00,14.3,1.8,30.64,South,169,2.0,5.0,57,0.00,,,0.00,Wunderground v.1.15,2013-01-25 11:13:00,
2013-01-25 06:14:00,14.4,1.9,30.64,SSW,211,2.0,6.0,57,0.00,,,0.00,Wunderground v.1.15,2013-01-25 11:14:00,
2013-01-25 06:15:00,14.4,1.9,30.64,East,84,1.0,6.0,57,0.00,,,0.00,Wunderground v.1.15,2013-01-25 11:15:00,
2013-01-25 06:18:00,14.4,1.9,30.64,SE,138,5.0,6.0,57,0.00,,,0.00,Wunderground v.1.15,2013-01-25 11:18:00,
2013-01-25 06:19:00,14.4,1.9,30.64,SE,136,2.0,6.0,57,0.00,,,0.00,Wunderground v.1.15,2013-01-25 11:19:00,
2013-01-25 06:20:00,14.4,1.9,30.63,ESE,123,0.0,3.0,57,0.00,,,0.00,Wunderground v.1.15,2013-01-25 11:20:00,
2013-01-25 06:21:00,14.4,1.9,30.63,SE,139,4.0,4.0,57,0.00,,,0.00,Wunderground v.1.15,2013-01-25 11:21:00,
2013-01-25 06:23:00,14.3,1.8,30.63,SE,136,0.0,4.0,57,0.00,,,0.00,Wunderground v.1.15,2013-01-25 11:23:00,
2013-01-25 06:24:00,14.3,1.8,30.62,SE,146,2.0,4.0,57,0.00,,,0.00,Wunderground v.1.15,2013-01-25 11:24:00,
2013-01-25 06:25:00,14.3,1.8,30.62,SSE,153,2.0,4.0,57,0.00,,,0.00,Wunderground v.1.15,2013-01-25 11:25:00,
2013-01-25 06:26:00,14.3,1.8,30.62,SSW,205,3.0,4.0,57,0.00,,,0.00,Wunderground v.1.15,2013-01-25 11:26:00,
2013-01-25 06:28:00,14.3,1.8,30.62,SE,137,5.0,5.0,57,0.00,,,0.00,Wunderground v.1.15,2013-01-25 11:28:00,
2013-01-25 06:29:00,14.3,2.2,30.62,SSE,161,3.0,5.0,58,0.00,,,0.00,Wunderground v.1.15,2013-01-25 11:29:00,
2013-01-25 06:31:00,14.3,1.8,30.62,SE,140,4.0,5.0,57,0.00,,,0.00,Wunderground v.1.15,2013-01-25 11:31:00,
2013-01-25 06:33:00,14.3,1.8,30.62,SE,144,2.0,5.0,57,0.00,,,0.00,Wunderground v.1.15,2013-01-25 11:33:00,
2013-01-25 06:35:00,14.3,1.8,30.61,SSE,156,4.0,5.0,57,0.00,,,0.00,Wunderground v.1.15,2013-01-25 11:35:00,
2013-01-25 06:36:00,14.4,2.3,30.61,SSE,148,3.0,6.0,58,0.00,,,0.00,Wunderground v.1.15,2013-01-25 11:36:00,
2013-01-25 06:39:00,14.3,2.2,30.61,SSE,161,5.0,7.0,58,0.00,,,0.00,Wunderground v.1.15,2013-01-25 11:39:00,
2013-01-25 06:40:00,14.3,2.2,30.61,SSE,155,6.0,6.0,58,0.00,,,0.00,Wunderground v.1.15,2013-01-25 11:40:00,
2013-01-25 06:41:00,14.3,2.2,30.60,South,169,5.0,7.0,58,0.00,,,0.00,Wunderground v.1.15,2013-01-25 11:41:00,
2013-01-25 06:44:00,14.3,1.8,30.61,SE,138,3.0,8.0,57,0.00,,,0.00,Wunderground v.1.15,2013-01-25 11:44:00,
2013-01-25 06:45:00,14.3,2.2,30.61,South,169,4.0,8.0,58,0.00,,,0.00,Wunderground v.1.15,2013-01-25 11:45:00,
2013-01-25 06:46:00,14.3,1.8,30.61,SSE,166,2.0,8.0,57,0.00,,,0.00,Wunderground v.1.15,2013-01-25 11:46:00,
2013-01-25 06:47:00,14.3,1.8,30.61,SSE,163,2.0,8.0,57,0.00,,,0.00,Wunderground v.1.15,2013-01-25 11:47:00,
2013-01-25 06:49:00,14.3,2.2,30.61,SSE,150,4.0,8.0,58,0.00,,,0.00,Wunderground v.1.15,2013-01-25 11:49:00,
2013-01-25 06:50:00,14.3,2.2,30.61,SE,134,3.0,7.0,58,0.00,,,0.00,Wunderground v.1.15,2013-01-25 11:50:00,
2013-01-25 06:52:00,14.3,2.6,30.60,SSE,153,5.0,7.0,59,0.00,,,0.00,Wunderground v.1.15,2013-01-25 11:52:00,
2013-01-25 06:54:00,14.3,1.8,30.60,SSE,157,2.0,7.0,57,0.00,,,0.00,Wunderground v.1.15,2013-01-25 11:54:00,
2013-01-25 06:55:00,14.3,2.2,30.60,SSE,164,4.0,7.0,58,0.00,,,0.00,Wunderground v.1.15,2013-01-25 11:55:00,
2013-01-25 06:57:00,14.3,2.2,30.61,South,175,5.0,7.0,58,0.00,,,0.00,Wunderground v.1.15,2013-01-25 11:57:00,
2013-01-25 06:59:00,14.3,2.2,30.61,South,171,3.0,7.0,58,0.00,,,0.00,Wunderground v.1.15,2013-01-25 11:59:00,
2013-01-25 07:00:00,14.3,2.2,30.61,SE,128,4.0,4.0,58,0.00,,,0.00,Wunderground v.1.15,2013-01-25 12:00:00,
2013-01-25 07:02:00,14.4,2.3,30.61,WNW,285,1.0,4.0,58,0.00,,,0.00,Wunderground v.1.15,2013-01-25 12:02:00,
2013-01-25 07:05:00,14.4,1.9,30.61,ESE,110,2.0,8.0,57,0.00,,,0.00,Wunderground v.1.15,2013-01-25 12:05:00,
2013-01-25 07:06:00,14.4,1.9,30.60,SE,128,4.0,11.0,57,0.00,,,0.00,Wunderground v.1.15,2013-01-25 12:06:00,
2013-01-25 07:07:00,14.4,2.3,30.60,SE,125,4.0,11.0,58,0.00,,,0.00,Wunderground v.1.15,2013-01-25 12:07:00,
2013-01-25 07:10:00,14.3,2.2,30.60,SSE,157,5.0,5.0,58,0.00,,,0.00,Wunderground v.1.15,2013-01-25 12:10:00,
2013-01-25 07:12:00,14.3,2.2,30.60,SSE,166,3.0,7.0,58,0.00,,,0.00,Wunderground v.1.15,2013-01-25 12:12:00,
2013-01-25 07:15:00,14.4,1.9,30.61,South,184,3.0,7.0,57,0.00,,,0.00,Wunderground v.1.15,2013-01-25 12:15:00,
2013-01-25 07:17:00,14.5,2.4,30.60,East,97,5.0,9.0,58,0.00,,,0.00,Wunderground v.1.15,2013-01-25 12:17:00,
2013-01-25 07:20:00,14.5,2.0,30.60,SSE,154,7.0,8.0,57,0.00,,,0.00,Wunderground v.1.15,2013-01-25 12:20:00,
2013-01-25 07:22:00,14.5,2.4,30.59,ESE,114,4.0,8.0,58,0.00,,,0.00,Wunderground v.1.15,2013-01-25 12:22:00,
2013-01-25 07:23:00,14.5,2.4,30.59,ESE,113,4.0,8.0,58,0.00,,,0.00,Wunderground v.1.15,2013-01-25 12:23:00,
2013-01-25 07:25:00,14.5,2.0,30.60,SSE,159,5.0,10.0,57,0.00,,,0.00,Wunderground v.1.15,2013-01-25 12:25:00,
2013-01-25 07:27:00,14.6,2.5,30.60,SSE,155,8.0,10.0,58,0.00,,,0.00,Wunderground v.1.15,2013-01-25 12:27:00,
2013-01-25 07:28:00,14.6,2.5,30.60,SSE,157,5.0,10.0,58,0.00,,,0.00,Wunderground v.1.15,2013-01-25 12:28:00,
2013-01-25 07:31:00,14.6,2.9,30.60,SSE,158,2.0,5.0,59,0.00,,,0.00,Wunderground v.1.15,2013-01-25 12:31:00,
2013-01-25 07:32:00,14.6,2.5,30.59,SSE,151,9.0,9.0,58,0.00,,,0.00,Wunderground v.1.15,2013-01-25 12:32:00,
2013-01-25 07:33:00,14.7,2.6,30.59,SE,128,7.0,10.0,58,0.00,,,0.00,Wunderground v.1.15,2013-01-25 12:33:00,
2013-01-25 07:34:00,14.7,2.6,30.59,SSE,151,4.0,10.0,58,0.00,,,0.00,Wunderground v.1.15,2013-01-25 12:34:00,
2013-01-25 07:36:00,14.7,2.2,30.59,South,180,9.0,10.0,57,0.00,,,0.00,Wunderground v.1.15,2013-01-25 12:36:00,
2013-01-25 07:38:00,14.7,2.6,30.60,South,169,7.0,10.0,58,0.00,,,0.00,Wunderground v.1.15,2013-01-25 12:38:00,
2013-01-25 07:39:00,14.7,2.6,30.60,SSE,153,8.0,12.0,58,0.00,,,0.00,Wunderground v.1.15,2013-01-25 12:39:00,
2013-01-25 07:41:00,14.7,2.6,30.59,SE,128,6.0,6.0,58,0.00,,,0.00,Wunderground v.1.15,2013-01-25 12:41:00,
2013-01-25 07:43:00,14.7,2.6,30.59,SE,127,2.0,7.0,58,0.00,,,0.00,Wunderground v.1.15,2013-01-25 12:43:00,
2013-01-25 07:44:00,14.8,2.7,30.59,SSE,164,4.0,8.0,58,0.00,,,0.00,Wunderground v.1.15,2013-01-25 12:44:00,
2013-01-25 07:46:00,14.8,2.7,30.60,SSW,200,5.0,8.0,58,0.00,,,0.00,Wunderground v.1.15,2013-01-25 12:46:00,
2013-01-25 07:48:00,14.8,2.7,30.59,SSE,161,4.0,9.0,58,0.00,,,0.00,Wunderground v.1.15,2013-01-25 12:48:00,
2013-01-25 07:49:00,14.8,2.7,30.59,SSE,163,4.0,9.0,58,0.00,,,0.00,Wunderground v.1.15,2013-01-25 12:49:00,
2013-01-25 07:51:00,14.8,2.7,30.60,SSE,168,6.0,8.0,58,0.00,,,0.00,Wunderground v.1.15,2013-01-25 12:51:00,
2013-01-25 07:53:00,14.8,2.7,30.61,SW,234,1.0,8.0,58,0.00,,,0.00,Wunderground v.1.15,2013-01-25 12:53:00,
2013-01-25 07:54:00,14.8,3.0,30.61,SSE,159,4.0,8.0,59,0.00,,,0.00,Wunderground v.1.15,2013-01-25 12:54:00,
2013-01-25 07:57:00,14.9,3.1,30.61,SSE,163,4.0,8.0,59,0.00,,,0.00,Wunderground v.1.15,2013-01-25 12:57:00,
2013-01-25 07:59:00,14.9,2.8,30.61,WSW,247,5.0,8.0,58,0.00,,,0.00,Wunderground v.1.15,2013-01-25 12:59:00,
2013-01-25 08:02:00,14.9,2.4,30.61,SW,228,2.0,6.0,57,0.00,,,0.00,Wunderground v.1.15,2013-01-25 13:02:00,
2013-01-25 08:04:00,14.9,2.8,30.60,South,178,1.0,6.0,58,0.00,,,0.00,Wunderground v.1.15,2013-01-25 13:04:00,
2013-01-25 08:07:00,15.0,2.9,30.59,SSE,158,3.0,6.0,58,0.00,,,0.00,Wunderground v.1.15,2013-01-25 13:07:00,
2013-01-25 08:09:00,15.1,3.0,30.59,SSE,153,4.0,6.0,58,0.00,,,0.00,Wunderground v.1.15,2013-01-25 13:09:00,
2013-01-25 08:10:00,15.1,3.0,30.59,South,178,4.0,4.0,58,0.00,,,0.00,Wunderground v.1.15,2013-01-25 13:10:00,
2013-01-25 08:12:00,15.2,3.1,30.60,South,179,5.0,7.0,58,0.00,,,0.00,Wunderground v.1.15,2013-01-25 13:12:00,
2013-01-25 08:14:00,15.2,3.1,30.60,SSE,155,6.0,7.0,58,0.00,,,0.00,Wunderground v.1.15,2013-01-25 13:14:00,
2013-01-25 08:15:00,15.2,3.1,30.60,SSE,163,8.0,8.0,58,0.00,,,0.00,Wunderground v.1.15,2013-01-25 13:15:00,
2013-01-25 08:17:00,15.3,3.5,30.59,SSW,193,2.0,8.0,59,0.00,,,0.00,Wunderground v.1.15,2013-01-25 13:17:00,
2013-01-25 08:19:00,15.4,3.2,30.59,South,174,2.0,8.0,58,0.00,,,0.00,Wunderground v.1.15,2013-01-25 13:19:00,
2013-01-25 08:20:00,15.4,3.2,30.59,South,188,3.0,4.0,58,0.00,,,0.00,Wunderground v.1.15,2013-01-25 13:20:00,
2013-01-25 08:23:00,15.4,2.9,30.58,SE,146,2.0,6.0,57,0.00,,,0.00,Wunderground v.1.15,2013-01-25 13:23:00,
2013-01-25 08:24:00,15.4,3.2,30.59,SSE,155,5.0,6.0,58,0.00,,,0.00,Wunderground v.1.15,2013-01-25 13:24:00,
2013-01-25 08:25:00,15.5,3.3,30.59,SE,126,4.0,6.0,58,0.00,,,0.00,Wunderground v.1.15,2013-01-25 13:25:00,
2013-01-25 08:28:00,15.5,3.0,30.59,West,273,2.0,7.0,57,0.00,,,0.00,Wunderground v.1.15,2013-01-25 13:28:00,
2013-01-25 08:30:00,15.5,3.0,30.59,SW,225,3.0,4.0,57,0.00,,,0.00,Wunderground v.1.15,2013-01-25 13:30:00,
2013-01-25 08:33:00,15.6,3.1,30.58,SSE,159,7.0,9.0,57,0.00,,,0.00,Wunderground v.1.15,2013-01-25 13:33:00,
2013-01-25 08:35:00,15.6,3.1,30.58,South,181,5.0,9.0,57,0.00,,,0.00,Wunderground v.1.15,2013-01-25 13:35:00,
2013-01-25 08:36:00,15.6,3.1,30.58,South,178,6.0,9.0,57,0.00,,,0.00,Wunderground v.1.15,2013-01-25 13:36:00,
2013-01-25 08:39:00,15.7,3.1,30.58,South,184,6.0,9.0,57,0.00,,,0.00,Wunderground v.1.15,2013-01-25 13:39:00,
2013-01-25 08:41:00,15.7,3.1,30.57,SE,140,4.0,8.0,57,0.00,,,0.00,Wunderground v.1.15,2013-01-25 13:41:00,
2013-01-25 08:44:00,15.7,3.1,30.57,ESE,115,7.0,8.0,57,0.00,,,0.00,Wunderground v.1.15,2013-01-25 13:44:00,
2013-01-25 08:46:00,15.7,3.1,30.58,SSW,202,3.0,8.0,57,0.00,,,0.00,Wunderground v.1.15,2013-01-25 13:46:00,
2013-01-25 08:49:00,15.7,3.1,30.58,SE,138,5.0,8.0,57,0.00,,,0.00,Wunderground v.1.15,2013-01-25 13:49:00,
2013-01-25 08:51:00,15.8,3.2,30.58,South,174,4.0,6.0,57,0.00,,,0.00,Wunderground v.1.15,2013-01-25 13:51:00,
2013-01-25 08:54:00,15.9,3.3,30.58,SSW,211,2.0,11.0,57,0.00,,,0.00,Wunderground v.1.15,2013-01-25 13:54:00,
2013-01-25 08:56:00,15.9,3.3,30.58,WSW,250,2.0,11.0,57,0.00,,,0.00,Wunderground v.1.15,2013-01-25 13:56:00,
2013-01-25 08:57:00,16.0,3.4,30.58,South,173,4.0,11.0,57,0.00,,,0.00,Wunderground v.1.15,2013-01-25 13:57:00,
2013-01-25 08:59:00,16.0,3.4,30.58,SSE,164,4.0,11.0,57,0.00,,,0.00,Wunderground v.1.15,2013-01-25 13:59:00,
2013-01-25 09:01:00,16.1,3.9,30.58,South,180,2.0,9.0,58,0.00,,,0.00,Wunderground v.1.15,2013-01-25 14:01:00,
2013-01-25 09:02:00,16.1,3.9,30.58,SSE,163,3.0,9.0,58,0.00,,,0.00,Wunderground v.1.15,2013-01-25 14:02:00,
2013-01-25 09:04:00,16.1,3.5,30.58,South,175,4.0,9.0,57,0.00,,,0.00,Wunderground v.1.15,2013-01-25 14:04:00,
2013-01-25 09:07:00,16.1,3.1,30.59,SSE,162,2.0,9.0,56,0.00,,,0.00,Wunderground v.1.15,2013-01-25 14:07:00,
2013-01-25 09:09:00,16.2,4.0,30.59,South,175,4.0,9.0,58,0.00,,,0.00,Wunderground v.1.15,2013-01-25 14:09:00,
2013-01-25 09:12:00,16.3,5.5,30.59,SW,220,4.0,6.0,62,0.00,,,0.00,Wunderground v.1.15,2013-01-25 14:12:00,
2013-01-25 09:14:00,16.3,3.7,30.58,SSW,208,7.0,9.0,57,0.00,,,0.00,Wunderground v.1.15,2013-01-25 14:14:00,
2013-01-25 09:17:00,16.4,3.4,30.57,South,173,2.0,9.0,56,0.00,,,0.00,Wunderground v.1.15,2013-01-25 14:17:00,
2013-01-25 09:19:00,16.4,3.8,30.57,SSE,157,3.0,9.0,57,0.00,,,0.00,Wunderground v.1.15,2013-01-25 14:19:00,
2013-01-25 09:22:00,16.5,3.9,30.56,SSE,155,6.0,11.0,57,0.00,,,0.00,Wunderground v.1.15,2013-01-25 14:22:00,
2013-01-25 09:25:00,16.7,4.5,30.56,South,171,3.0,11.0,58,0.00,,,0.00,Wunderground v.1.15,2013-01-25 14:25:00,
2013-01-25 09:27:00,16.8,4.2,30.56,ESE,121,5.0,11.0,57,0.00,,,0.00,Wunderground v.1.15,2013-01-25 14:27:00,
2013-01-25 09:28:00,16.8,4.6,30.56,ESE,105,8.0,11.0,58,0.00,,,0.00,Wunderground v.1.15,2013-01-25 14:28:00,
2013-01-25 09:31:00,16.8,4.6,30.57,SW,215,7.0,8.0,58,0.00,,,0.00,Wunderground v.1.15,2013-01-25 14:31:00,
2013-01-25 09:32:00,16.9,5.0,30.57,South,190,7.0,11.0,59,0.00,,,0.00,Wunderground v.1.15,2013-01-25 14:32:00,
2013-01-25 09:33:00,16.9,4.7,30.57,ESE,123,9.0,11.0,58,0.00,,,0.00,Wunderground v.1.15,2013-01-25 14:33:00,
2013-01-25 09:36:00,16.9,5.0,30.57,South,188,8.0,11.0,59,0.00,,,0.00,Wunderground v.1.15,2013-01-25 14:36:00,
2013-01-25 09:37:00,16.8,4.9,30.56,South,172,8.0,11.0,59,0.00,,,0.00,Wunderground v.1.15,2013-01-25 14:37:00,
2013-01-25 09:39:00,16.8,5.3,30.57,SSE,160,6.0,12.0,60,0.00,,,0.00,Wunderground v.1.15,2013-01-25 14:39:00,
2013-01-25 09:41:00,16.7,5.2,30.58,SE,141,7.0,8.0,60,0.00,,,0.00,Wunderground v.1.15,2013-01-25 14:41:00,
2013-01-25 09:43:00,16.7,5.6,30.58,SSW,199,4.0,8.0,61,0.00,,,0.00,Wunderground v.1.15,2013-01-25 14:43:00,
2013-01-25 09:44:00,16.6,5.5,30.58,SSE,162,3.0,8.0,61,0.00,,,0.00,Wunderground v.1.15,2013-01-25 14:44:00,
2013-01-25 09:47:00,16.5,5.4,30.57,SSE,164,5.0,8.0,61,0.00,,,0.00,Wunderground v.1.15,2013-01-25 14:47:00,
2013-01-25 09:48:00,16.5,5.7,30.57,SSE,159,1.0,8.0,62,0.00,,,0.00,Wunderground v.1.15,2013-01-25 14:48:00,
2013-01-25 09:49:00,16.5,6.1,30.57,SSW,209,2.0,9.0,63,0.00,,,0.00,Wunderground v.1.15,2013-01-25 14:49:00,
2013-01-25 09:50:00,16.5,6.1,30.57,South,180,1.0,5.0,63,0.00,,,0.00,Wunderground v.1.15,2013-01-25 14:50:00,
2013-01-25 09:52:00,16.5,6.1,30.56,South,183,5.0,8.0,63,0.00,,,0.00,Wunderground v.1.15,2013-01-25 14:52:00,
2013-01-25 09:53:00,16.4,6.3,30.56,South,178,3.0,8.0,64,0.00,,,0.00,Wunderground v.1.15,2013-01-25 14:53:00,
2013-01-25 09:55:00,16.4,6.3,30.56,South,177,6.0,8.0,64,0.00,,,0.00,Wunderground v.1.15,2013-01-25 14:55:00,
2013-01-25 09:57:00,16.4,6.7,30.55,SSE,168,5.0,10.0,65,0.00,,,0.00,Wunderground v.1.15,2013-01-25 14:57:00,
2013-01-25 09:59:00,16.4,6.7,30.56,South,182,4.0,10.0,65,0.00,,,0.00,Wunderground v.1.15,2013-01-25 14:59:00,
2013-01-25 10:00:00,16.4,6.7,30.56,South,171,3.0,4.0,65,0.00,,,0.00,Wunderground v.1.15,2013-01-25 15:00:00,
2013-01-25 10:02:00,16.4,7.0,30.57,South,177,2.0,12.0,66,0.00,,,0.00,Wunderground v.1.15,2013-01-25 15:02:00,
2013-01-25 10:04:00,16.4,7.3,30.57,South,182,5.0,12.0,67,0.00,,,0.00,Wunderground v.1.15,2013-01-25 15:04:00,
2013-01-25 10:05:00,16.3,7.3,30.58,South,171,4.0,12.0,67,0.00,,,0.00,Wunderground v.1.15,2013-01-25 15:05:00,
2013-01-25 10:06:00,16.3,7.3,30.57,SSW,209,5.0,12.0,67,0.00,,,0.00,Wunderground v.1.15,2013-01-25 15:06:00,
2013-01-25 10:08:00,16.2,7.8,30.57,SSW,201,3.0,12.0,69,0.00,,,0.00,Wunderground v.1.15,2013-01-25 15:08:00,
2013-01-25 10:09:00,16.2,7.8,30.56,South,175,2.0,12.0,69,0.00,,,0.00,Wunderground v.1.15,2013-01-25 15:09:00,
2013-01-25 10:10:00,16.2,8.1,30.56,South,172,4.0,5.0,70,0.00,,,0.00,Wunderground v.1.15,2013-01-25 15:10:00,
2013-01-25 10:11:00,16.1,8.3,30.55,SSW,192,8.0,8.0,71,0.00,,,0.00,Wunderground v.1.15,2013-01-25 15:11:00,
2013-01-25 10:13:00,16.1,8.7,30.55,South,176,3.0,9.0,72,0.00,,,0.00,Wunderground v.1.15,2013-01-25 15:13:00,
2013-01-25 10:14:00,16.1,8.7,30.56,SW,230,3.0,9.0,72,0.00,,,0.00,Wunderground v.1.15,2013-01-25 15:14:00,
2013-01-25 10:15:00,16.0,8.9,30.56,South,175,2.0,9.0,73,0.00,,,0.00,Wunderground v.1.15,2013-01-25 15:15:00,
2013-01-25 10:16:00,16.0,9.2,30.55,ESE,107,3.0,9.0,74,0.00,,,0.00,Wunderground v.1.15,2013-01-25 15:16:00,
2013-01-25 10:18:00,15.9,9.4,30.55,SSW,201,4.0,9.0,75,0.00,,,0.00,Wunderground v.1.15,2013-01-25 15:18:00,
2013-01-25 10:20:00,15.8,9.6,30.55,SSE,155,5.0,5.0,76,0.00,,,0.00,Wunderground v.1.15,2013-01-25 15:20:00,
2013-01-25 10:22:00,15.7,9.5,30.55,South,182,9.0,10.0,76,0.00,,,0.00,Wunderground v.1.15,2013-01-25 15:22:00,
2013-01-25 10:23:00,15.6,10.0,30.55,South,174,3.0,10.0,78,0.00,,,0.00,Wunderground v.1.15,2013-01-25 15:23:00,
2013-01-25 10:25:00,15.5,9.9,30.54,SSE,160,3.0,10.0,78,0.00,,,0.00,Wunderground v.1.15,2013-01-25 15:25:00,
2013-01-25 10:26:00,15.5,10.1,30.54,ESE,111,4.0,10.0,79,0.00,,,0.00,Wunderground v.1.15,2013-01-25 15:26:00,
2013-01-25 10:27:00,15.4,9.8,30.54,ESE,120,3.0,10.0,78,0.00,,,0.00,Wunderground v.1.15,2013-01-25 15:27:00,
2013-01-25 10:28:00,15.4,10.1,30.54,SE,126,4.0,10.0,79,0.00,,,0.00,Wunderground v.1.15,2013-01-25 15:28:00,
2013-01-25 10:30:00,15.3,10.0,30.54,South,177,2.0,6.0,79,0.00,,,0.00,Wunderground v.1.15,2013-01-25 15:30:00,
2013-01-25 10:31:00,15.3,10.2,30.54,SSE,150,3.0,6.0,80,0.00,,,0.00,Wunderground v.1.15,2013-01-25 15:31:00,
2013-01-25 10:32:00,15.3,10.2,30.54,South,170,2.0,6.0,80,0.00,,,0.00,Wunderground v.1.15,2013-01-25 15:32:00,
2013-01-25 10:34:00,15.3,10.2,30.54,SSE,159,3.0,6.0,80,0.00,,,0.00,Wunderground v.1.15,2013-01-25 15:34:00,
2013-01-25 10:35:00,15.2,10.4,30.54,South,189,8.0,8.0,81,0.00,,,0.00,Wunderground v.1.15,2013-01-25 15:35:00,
2013-01-25 10:37:00,15.2,10.4,30.54,SSE,161,4.0,8.0,81,0.00,,,0.00,Wunderground v.1.15,2013-01-25 15:37:00,
2013-01-25 10:39:00,15.2,10.7,30.53,South,171,4.0,8.0,82,0.00,,,0.00,Wunderground v.1.15,2013-01-25 15:39:00,
2013-01-25 10:40:00,15.2,10.7,30.53,SSE,159,6.0,7.0,82,0.00,,,0.00,Wunderground v.1.15,2013-01-25 15:40:00,
2013-01-25 10:42:00,15.1,10.6,30.53,SW,228,5.0,7.0,82,0.00,,,0.00,Wunderground v.1.15,2013-01-25 15:42:00,
2013-01-25 10:44:00,15.0,10.8,30.53,South,178,6.0,9.0,83,0.00,,,0.00,Wunderground v.1.15,2013-01-25 15:44:00,
2013-01-25 10:46:00,15.0,10.8,30.54,SSE,155,4.0,9.0,83,0.00,,,0.00,Wunderground v.1.15,2013-01-25 15:46:00,
2013-01-25 10:47:00,15.0,10.8,30.54,WSW,257,3.0,9.0,83,0.00,,,0.00,Wunderground v.1.15,2013-01-25 15:47:00,
2013-01-25 10:49:00,15.1,11.1,30.54,SSW,202,7.0,11.0,84,0.00,,,0.00,Wunderground v.1.15,2013-01-25 15:49:00,
2013-01-25 10:52:00,15.1,11.4,30.53,South,178,2.0,9.0,85,0.00,,,0.00,Wunderground v.1.15,2013-01-25 15:52:00,
2013-01-25 10:55:00,15.0,11.0,30.53,South,188,4.0,9.0,84,0.00,,,0.00,Wunderground v.1.15,2013-01-25 15:55:00,
2013-01-25 10:57:00,14.9,10.9,30.53,South,172,4.0,9.0,84,0.00,,,0.00,Wunderground v.1.15,2013-01-25 15:57:00,
2013-01-25 11:00:00,14.8,11.1,30.52,SSE,159,3.0,5.0,85,0.00,,,0.00,Wunderground v.1.15,2013-01-25 16:00:00,
2013-01-25 11:02:00,14.8,11.1,30.52,South,176,3.0,9.0,85,0.00,,,0.00,Wunderground v.1.15,2013-01-25 16:02:00,
2013-01-25 11:03:00,14.8,11.1,30.52,South,182,2.0,9.0,85,0.00,,,0.00,Wunderground v.1.15,2013-01-25 16:03:00,
2013-01-25 11:05:00,14.8,11.1,30.52,South,183,0.0,9.0,85,0.00,,,0.00,Wunderground v.1.15,2013-01-25 16:05:00,
2013-01-25 11:07:00,14.8,11.1,30.52,South,174,4.0,9.0,85,0.00,,,0.00,Wunderground v.1.15,2013-01-25 16:07:00,
2013-01-25 11:09:00,14.9,11.5,30.52,South,177,3.0,9.0,86,0.00,,,0.00,Wunderground v.1.15,2013-01-25 16:09:00,
2013-01-25 11:10:00,14.9,11.2,30.52,South,178,7.0,7.0,85,0.00,,,0.00,Wunderground v.1.15,2013-01-25 16:10:00,
2013-01-25 11:13:00,14.9,11.2,30.52,SSW,192,5.0,7.0,85,0.00,,,0.00,Wunderground v.1.15,2013-01-25 16:13:00,
2013-01-25 11:14:00,15.0,11.6,30.52,SSE,161,2.0,7.0,86,0.00,,,0.00,Wunderground v.1.15,2013-01-25 16:14:00,
2013-01-25 11:16:00,15.0,11.3,30.51,SSE,168,3.0,7.0,85,0.00,,,0.00,Wunderground v.1.15,2013-01-25 16:16:00,
2013-01-25 11:18:00,15.0,11.3,30.51,SSE,148,3.0,7.0,85,0.00,,,0.00,Wunderground v.1.15,2013-01-25 16:18:00,
2013-01-25 11:20:00,15.0,11.3,30.51,SSE,168,3.0,4.0,85,0.00,,,0.00,Wunderground v.1.15,2013-01-25 16:20:00,
2013-01-25 11:21:00,15.1,11.7,30.52,South,169,5.0,5.0,86,0.00,,,0.00,Wunderground v.1.15,2013-01-25 16:21:00,
2013-01-25 11:23:00,15.1,11.7,30.51,South,175,1.0,5.0,86,0.00,,,0.00,Wunderground v.1.15,2013-01-25 16:23:00,
2013-01-25 11:25:00,15.1,11.7,30.51,WSW,249,2.0,5.0,86,0.00,,,0.00,Wunderground v.1.15,2013-01-25 16:25:00,
2013-01-25 11:27:00,15.2,11.5,30.51,SSW,202,3.0,6.0,85,0.00,,,0.00,Wunderground v.1.15,2013-01-25 16:27:00,
2013-01-25 11:28:00,15.2,11.8,30.51,South,182,4.0,6.0,86,0.00,,,0.00,Wunderground v.1.15,2013-01-25 16:28:00,
2013-01-25 11:30:00,15.2,11.5,30.51,SSW,192,2.0,3.0,85,0.00,,,0.00,Wunderground v.1.15,2013-01-25 16:30:00,
2013-01-25 11:32:00,15.2,11.8,30.50,SSW,196,1.0,3.0,86,0.00,,,0.00,Wunderground v.1.15,2013-01-25 16:32:00,
2013-01-25 11:33:00,15.3,11.9,30.50,SSW,200,5.0,5.0,86,0.00,,,0.00,Wunderground v.1.15,2013-01-25 16:33:00,
2013-01-25 11:36:00,15.3,11.9,30.50,South,183,6.0,10.0,86,0.00,,,0.00,Wunderground v.1.15,2013-01-25 16:36:00,
2013-01-25 11:37:00,15.3,11.9,30.50,South,178,3.0,10.0,86,0.00,,,0.00,Wunderground v.1.15,2013-01-25 16:37:00,
2013-01-25 11:39:00,15.3,11.6,30.50,SW,219,3.0,10.0,85,0.00,,,0.00,Wunderground v.1.15,2013-01-25 16:39:00,
2013-01-25 11:41:00,15.3,11.6,30.50,ESE,123,2.0,5.0,85,0.00,,,0.00,Wunderground v.1.15,2013-01-25 16:41:00,
2013-01-25 11:42:00,15.3,11.6,30.50,South,171,3.0,6.0,85,0.00,,,0.00,Wunderground v.1.15,2013-01-25 16:42:00,
2013-01-25 11:44:00,15.3,11.9,30.50,South,191,3.0,6.0,86,0.00,,,0.00,Wunderground v.1.15,2013-01-25 16:44:00,
2013-01-25 11:45:00,15.3,11.9,30.49,South,180,5.0,9.0,86,0.00,,,0.00,Wunderground v.1.15,2013-01-25 16:45:00,
2013-01-25 11:46:00,15.3,11.6,30.49,SSW,192,2.0,9.0,85,0.00,,,0.00,Wunderground v.1.15,2013-01-25 16:46:00,
2013-01-25 11:48:00,15.3,11.6,30.49,South,172,3.0,9.0,85,0.00,,,0.00,Wunderground v.1.15,2013-01-25 16:48:00,
2013-01-25 11:50:00,15.4,11.7,30.48,SE,140,3.0,3.0,85,0.00,,,0.00,Wunderground v.1.15,2013-01-25 16:50:00,
2013-01-25 11:51:00,15.4,12.0,30.48,SSE,159,4.0,6.0,86,0.00,,,0.00,Wunderground v.1.15,2013-01-25 16:51:00,
2013-01-25 11:53:00,15.4,11.7,30.48,SSE,165,3.0,6.0,85,0.00,,,0.00,Wunderground v.1.15,2013-01-25 16:53:00,
2013-01-25 11:55:00,15.4,12.0,30.48,SSE,165,8.0,10.0,86,0.00,,,0.00,Wunderground v.1.15,2013-01-25 16:55:00,
2013-01-25 11:57:00,15.5,12.1,30.48,South,171,3.0,10.0,86,0.00,,,0.00,Wunderground v.1.15,2013-01-25 16:57:00,
2013-01-25 11:58:00,15.5,12.1,30.47,SSE,168,4.0,10.0,86,0.00,,,0.00,Wunderground v.1.15,2013-01-25 16:58:00,
2013-01-25 12:00:00,15.5,12.1,30.47,SSW,205,3.0,5.0,86,0.00,,,0.00,Wunderground v.1.15,2013-01-25 17:00:00,
2013-01-25 12:01:00,15.5,12.1,30.47,SSE,161,4.0,8.0,86,0.00,,,0.00,Wunderground v.1.15,2013-01-25 17:01:00,
2013-01-25 12:02:00,15.5,12.1,30.46,South,179,7.0,8.0,86,0.00,,,0.00,Wunderground v.1.15,2013-01-25 17:02:00,
2013-01-25 12:03:00,15.5,12.1,30.46,SSE,158,5.0,8.0,86,0.00,,,0.00,Wunderground v.1.15,2013-01-25 17:03:00,
2013-01-25 12:05:00,15.6,12.2,30.46,SSE,154,5.0,10.0,86,0.00,,,0.00,Wunderground v.1.15,2013-01-25 17:05:00,
2013-01-25 12:07:00,15.5,12.1,30.45,South,173,7.0,10.0,86,0.00,,,0.00,Wunderground v.1.15,2013-01-25 17:07:00,
2013-01-25 12:08:00,15.5,12.1,30.45,South,188,4.0,10.0,86,0.00,,,0.00,Wunderground v.1.15,2013-01-25 17:08:00,
2013-01-25 12:11:00,15.5,12.1,30.45,SSE,162,4.0,7.0,86,0.00,,,0.00,Wunderground v.1.15,2013-01-25 17:11:00,
2013-01-25 12:12:00,15.5,12.1,30.45,SSE,156,5.0,7.0,86,0.00,,,0.00,Wunderground v.1.15,2013-01-25 17:12:00,
2013-01-25 12:13:00,15.5,12.1,30.45,South,175,4.0,7.0,86,0.00,,,0.00,Wunderground v.1.15,2013-01-25 17:13:00,
2013-01-25 12:16:00,15.5,12.1,30.45,SSE,149,3.0,7.0,86,0.00,,,0.00,Wunderground v.1.15,2013-01-25 17:16:00,
2013-01-25 12:17:00,15.4,12.0,30.45,SSE,153,5.0,7.0,86,0.00,,,0.00,Wunderground v.1.15,2013-01-25 17:17:00,
2013-01-25 12:18:00,15.5,12.1,30.45,SSE,165,3.0,7.0,86,0.00,,,0.00,Wunderground v.1.15,2013-01-25 17:18:00,
2013-01-25 12:19:00,15.5,12.1,30.45,SE,134,5.0,7.0,86,0.00,,,0.00,Wunderground v.1.15,2013-01-25 17:19:00,
2013-01-25 12:21:00,15.5,12.3,30.45,South,182,6.0,7.0,87,0.00,,,0.00,Wunderground v.1.15,2013-01-25 17:21:00,
2013-01-25 12:22:00,15.5,12.3,30.45,SSE,155,0.0,7.0,87,0.00,,,0.00,Wunderground v.1.15,2013-01-25 17:22:00,
2013-01-25 12:23:00,15.5,12.3,30.45,South,178,2.0,7.0,87,0.00,,,0.00,Wunderground v.1.15,2013-01-25 17:23:00,
2013-01-25 12:24:00,15.5,12.3,30.45,SSW,208,2.0,7.0,87,0.00,,,0.00,Wunderground v.1.15,2013-01-25 17:24:00,
2013-01-25 12:26:00,15.5,12.3,30.45,South,181,4.0,7.0,87,0.00,,,0.00,Wunderground v.1.15,2013-01-25 17:26:00,
2013-01-25 12:28:00,15.5,12.3,30.45,South,178,7.0,8.0,87,0.00,,,0.00,Wunderground v.1.15,2013-01-25 17:28:00,
2013-01-25 12:29:00,15.6,12.4,30.45,SSE,158,5.0,8.0,87,0.00,,,0.00,Wunderground v.1.15,2013-01-25 17:29:00,
2013-01-25 12:32:00,15.6,12.4,30.45,South,180,3.0,7.0,87,0.00,,,0.00,Wunderground v.1.15,2013-01-25 17:32:00,
2013-01-25 12:33:00,15.6,12.4,30.45,SSW,192,4.0,7.0,87,0.00,,,0.00,Wunderground v.1.15,2013-01-25 17:33:00,
2013-01-25 12:34:00,15.7,12.5,30.45,South,177,5.0,7.0,87,0.00,,,0.00,Wunderground v.1.15,2013-01-25 17:34:00,
2013-01-25 12:37:00,15.7,12.5,30.44,SSW,193,5.0,7.0,87,0.00,,,0.00,Wunderground v.1.15,2013-01-25 17:37:00,
2013-01-25 12:38:00,15.7,12.5,30.44,South,186,3.0,7.0,87,0.00,,,0.00,Wunderground v.1.15,2013-01-25 17:38:00,
2013-01-25 12:39:00,15.7,12.5,30.44,SE,125,2.0,7.0,87,0.00,,,0.00,Wunderground v.1.15,2013-01-25 17:39:00,
2013-01-25 12:43:00,15.8,12.6,30.44,SW,227,0.0,3.0,87,0.00,,,0.00,Wunderground v.1.15,2013-01-25 17:43:00,
2013-01-25 12:44:00,15.8,12.6,30.43,SSE,163,2.0,5.0,87,0.00,,,0.00,Wunderground v.1.15,2013-01-25 17:44:00,
2013-01-25 12:48:00,15.9,12.7,30.43,South,182,6.0,7.0,87,0.00,,,0.00,Wunderground v.1.15,2013-01-25 17:48:00,
2013-01-25 12:50:00,15.9,12.7,30.42,South,185,3.0,3.0,87,0.00,,,0.00,Wunderground v.1.15,2013-01-25 17:50:00,
2013-01-25 12:53:00,16.0,12.8,30.43,SSE,165,7.0,7.0,87,0.00,,,0.00,Wunderground v.1.15,2013-01-25 17:53:00,
2013-01-25 12:55:00,16.0,12.8,30.43,South,180,4.0,7.0,87,0.00,,,0.00,Wunderground v.1.15,2013-01-25 17:55:00,
2013-01-25 12:59:00,16.0,12.8,30.42,South,178,4.0,7.0,87,0.00,,,0.00,Wunderground v.1.15,2013-01-25 17:59:00,
2013-01-25 13:00:00,16.1,12.9,30.41,SSE,157,3.0,3.0,87,0.00,,,0.00,Wunderground v.1.15,2013-01-25 18:00:00,
2013-01-25 13:04:00,16.2,13.0,30.41,South,177,4.0,7.0,87,0.00,,,0.00,Wunderground v.1.15,2013-01-25 18:04:00,
2013-01-25 13:05:00,16.2,12.7,30.41,SSW,207,2.0,7.0,86,0.00,,,0.00,Wunderground v.1.15,2013-01-25 18:05:00,
2013-01-25 13:06:00,16.2,12.7,30.41,South,186,5.0,7.0,86,0.00,,,0.00,Wunderground v.1.15,2013-01-25 18:06:00,
2013-01-25 13:09:00,16.1,12.7,30.41,SSE,157,3.0,7.0,86,0.00,,,0.00,Wunderground v.1.15,2013-01-25 18:09:00,
2013-01-25 13:11:00,16.2,12.7,30.41,SSE,165,4.0,7.0,86,0.00,,,0.00,Wunderground v.1.15,2013-01-25 18:11:00,
2013-01-25 13:12:00,16.2,12.7,30.41,SSE,156,4.0,7.0,86,0.00,,,0.00,Wunderground v.1.15,2013-01-25 18:12:00,
2013-01-25 13:14:00,16.2,12.7,30.41,SSE,155,2.0,7.0,86,0.00,,,0.00,Wunderground v.1.15,2013-01-25 18:14:00,
2013-01-25 13:16:00,16.2,12.7,30.41,South,184,8.0,9.0,86,0.00,,,0.00,Wunderground v.1.15,2013-01-25 18:16:00,
2013-01-25 13:17:00,16.2,12.7,30.41,SE,136,3.0,9.0,86,0.00,,,0.00,Wunderground v.1.15,2013-01-25 18:17:00,
2013-01-25 13:19:00,16.3,13.0,30.41,WSW,246,1.0,9.0,86,0.00,,,0.00,weatherlink.com 1.10,2013-01-25 18:19:00,
2013-01-25 13:21:00,16.3,12.8,30.40,SSE,161,1.0,4.0,86,0.00,,,0.00,Wunderground v.1.15,2013-01-25 18:21:00,
2013-01-25 13:22:00,16.4,12.9,30.41,SSW,198,2.0,4.0,86,0.00,,,0.00,Wunderground v.1.15,2013-01-25 18:22:00,
2013-01-25 13:24:00,16.4,12.7,30.41,South,180,2.0,6.0,85,0.00,,,0.00,Wunderground v.1.15,2013-01-25 18:24:00,
2013-01-25 13:26:00,16.4,12.9,30.40,South,180,2.0,6.0,86,0.00,,,0.00,Wunderground v.1.15,2013-01-25 18:26:00,
2013-01-25 13:27:00,16.5,12.8,30.40,SSE,152,4.0,6.0,85,0.00,,,0.00,Wunderground v.1.15,2013-01-25 18:27:00,
2013-01-25 13:30:00,16.6,12.9,30.40,SSE,152,3.0,3.0,85,0.00,,,0.00,Wunderground v.1.15,2013-01-25 18:30:00,
2013-01-25 13:31:00,16.6,12.9,30.40,SSE,153,2.0,3.0,85,0.00,,,0.00,Wunderground v.1.15,2013-01-25 18:31:00,
2013-01-25 13:32:00,16.6,12.9,30.40,SSE,162,2.0,4.0,85,0.00,,,0.00,Wunderground v.1.15,2013-01-25 18:32:00,
2013-01-25 13:33:00,16.6,12.9,30.40,SSE,153,1.0,4.0,85,0.00,,,0.00,Wunderground v.1.15,2013-01-25 18:33:00,
2013-01-25 13:35:00,16.6,12.9,30.40,South,173,3.0,4.0,85,0.00,,,0.00,Wunderground v.1.15,2013-01-25 18:35:00,
2013-01-25 13:36:00,16.6,12.9,30.40,South,175,3.0,4.0,85,0.00,,,0.00,Wunderground v.1.15,2013-01-25 18:36:00,
2013-01-25 13:37:00,16.6,12.9,30.40,South,190,2.0,4.0,85,0.00,,,0.00,Wunderground v.1.15,2013-01-25 18:37:00,
2013-01-25 13:38:00,16.7,13.0,30.39,SSE,157,2.0,5.0,85,0.00,,,0.00,Wunderground v.1.15,2013-01-25 18:38:00,
2013-01-25 13:40:00,16.7,13.0,30.39,SSE,152,3.0,4.0,85,0.00,,,0.00,Wunderground v.1.15,2013-01-25 18:40:00,
2013-01-25 13:41:00,16.7,13.0,30.39,South,169,3.0,4.0,85,0.00,,,0.00,Wunderground v.1.15,2013-01-25 18:41:00,
2013-01-25 13:42:00,16.7,13.0,30.39,South,171,4.0,4.0,85,0.00,,,0.00,Wunderground v.1.15,2013-01-25 18:42:00,
2013-01-25 13:44:00,16.7,13.0,30.40,South,171,2.0,5.0,85,0.00,,,0.00,Wunderground v.1.15,2013-01-25 18:44:00,
2013-01-25 13:45:00,16.7,13.0,30.40,South,188,0.0,5.0,85,0.00,,,0.00,Wunderground v.1.15,2013-01-25 18:45:00,
2013-01-25 13:46:00,16.7,13.0,30.39,SSE,155,2.0,5.0,85,0.00,,,0.00,Wunderground v.1.15,2013-01-25 18:46:00,
2013-01-25 13:47:00,16.7,13.0,30.39,South,180,4.0,5.0,85,0.00,,,0.00,Wunderground v.1.15,2013-01-25 18:47:00,
2013-01-25 13:49:00,16.7,13.0,30.39,SSE,167,4.0,5.0,85,0.00,,,0.00,Wunderground v.1.15,2013-01-25 18:49:00,
2013-01-25 13:51:00,16.7,13.2,30.39,South,182,0.0,4.0,86,0.00,,,0.00,Wunderground v.1.15,2013-01-25 18:51:00,
2013-01-25 13:52:00,16.7,13.2,30.39,South,180,3.0,4.0,86,0.00,,,0.00,Wunderground v.1.15,2013-01-25 18:52:00,
2013-01-25 13:53:00,16.7,13.2,30.39,SSW,199,2.0,4.0,86,0.00,,,0.00,Wunderground v.1.15,2013-01-25 18:53:00,
2013-01-25 13:54:00,16.7,13.2,30.38,SSE,153,3.0,4.0,86,0.00,,,0.00,Wunderground v.1.15,2013-01-25 18:54:00,
2013-01-25 13:56:00,16.7,13.2,30.38,SSW,192,0.0,5.0,86,0.00,,,0.00,Wunderground v.1.15,2013-01-25 18:56:00,
2013-01-25 13:57:00,16.7,13.2,30.38,South,172,3.0,6.0,86,0.00,,,0.00,Wunderground v.1.15,2013-01-25 18:57:00,
2013-01-25 13:58:00,16.6,13.1,30.38,SSE,157,4.0,6.0,86,0.00,,,0.00,Wunderground v.1.15,2013-01-25 18:58:00,
2013-01-25 13:59:00,16.6,13.1,30.38,SSE,164,3.0,6.0,86,0.00,,,0.00,Wunderground v.1.15,2013-01-25 18:59:00,
2013-01-25 14:02:00,16.6,13.1,30.38,South,171,1.0,3.0,86,0.00,,,0.00,Wunderground v.1.15,2013-01-25 19:02:00,
2013-01-25 14:03:00,16.6,13.1,30.37,South,181,6.0,6.0,86,0.00,,,0.00,Wunderground v.1.15,2013-01-25 19:03:00,
2013-01-25 14:04:00,16.6,13.1,30.37,South,182,5.0,6.0,86,0.00,,,0.00,Wunderground v.1.15,2013-01-25 19:04:00,
2013-01-25 14:07:00,16.6,13.1,30.37,SSW,193,3.0,6.0,86,0.00,,,0.00,Wunderground v.1.15,2013-01-25 19:07:00,
2013-01-25 14:09:00,16.6,13.4,30.37,South,188,3.0,6.0,87,0.00,,,0.00,Wunderground v.1.15,2013-01-25 19:09:00,
2013-01-25 14:10:00,16.6,13.4,30.37,South,169,1.0,2.0,87,0.00,,,0.00,Wunderground v.1.15,2013-01-25 19:10:00,
2013-01-25 14:12:00,16.6,13.4,30.38,SSW,202,6.0,6.0,87,0.00,,,0.00,Wunderground v.1.15,2013-01-25 19:12:00,
2013-01-25 14:14:00,16.6,13.4,30.37,SSW,210,4.0,6.0,87,0.00,,,0.00,Wunderground v.1.15,2013-01-25 19:14:00,
2013-01-25 14:15:00,16.7,13.5,30.37,SSE,163,3.0,6.0,87,0.00,,,0.00,Wunderground v.1.15,2013-01-25 19:15:00,
2013-01-25 14:17:00,16.7,13.5,30.37,South,191,5.0,6.0,87,0.00,,,0.00,Wunderground v.1.15,2013-01-25 19:17:00,
2013-01-25 14:18:00,16.7,13.5,30.37,South,180,2.0,6.0,87,0.00,,,0.00,Wunderground v.1.15,2013-01-25 19:18:00,
2013-01-25 14:19:00,16.7,13.5,30.37,WNW,298,2.0,6.0,87,0.00,,,0.00,Wunderground v.1.15,2013-01-25 19:19:00,
2013-01-25 14:20:00,16.8,13.6,30.37,South,180,3.0,5.0,87,0.00,,,0.00,Wunderground v.1.15,2013-01-25 19:20:00,
2013-01-25 14:22:00,16.9,13.7,30.36,South,184,0.0,5.0,87,0.00,,,0.00,Wunderground v.1.15,2013-01-25 19:22:00,
2013-01-25 14:23:00,16.9,13.7,30.36,SSE,164,4.0,5.0,87,0.00,,,0.00,Wunderground v.1.15,2013-01-25 19:23:00,
2013-01-25 14:24:00,17.0,13.8,30.36,South,190,4.0,5.0,87,0.00,,,0.00,Wunderground v.1.15,2013-01-25 19:24:00,
2013-01-25 14:26:00,17.0,13.8,30.36,South,175,4.0,5.0,87,0.00,,,0.00,Wunderground v.1.15,2013-01-25 19:26:00,
2013-01-25 14:27:00,17.0,13.8,30.36,West,277,2.0,5.0,87,0.00,,,0.00,Wunderground v.1.15,2013-01-25 19:27:00,
2013-01-25 14:29:00,17.1,13.9,30.36,South,173,5.0,7.0,87,0.00,,,0.00,Wunderground v.1.15,2013-01-25 19:29:00,
2013-01-25 14:30:00,17.1,13.9,30.36,South,175,2.0,5.0,87,0.00,,,0.00,Wunderground v.1.15,2013-01-25 19:30:00,
2013-01-25 14:31:00,17.1,13.9,30.36,East,101,2.0,5.0,87,0.00,,,0.00,Wunderground v.1.15,2013-01-25 19:31:00,
2013-01-25 14:32:00,17.1,13.9,30.35,South,182,3.0,5.0,87,0.00,,,0.00,Wunderground v.1.15,2013-01-25 19:32:00,
2013-01-25 14:34:00,17.1,13.9,30.35,South,181,2.0,5.0,87,0.00,,,0.00,Wunderground v.1.15,2013-01-25 19:34:00,
2013-01-25 14:35:00,17.1,13.9,30.35,South,182,1.0,5.0,87,0.00,,,0.00,Wunderground v.1.15,2013-01-25 19:35:00,
2013-01-25 14:36:00,17.2,14.0,30.35,SSW,196,0.0,5.0,87,0.00,,,0.00,Wunderground v.1.15,2013-01-25 19:36:00,
2013-01-25 14:38:00,17.2,14.0,30.35,SW,224,0.0,5.0,87,0.00,,,0.00,Wunderground v.1.15,2013-01-25 19:38:00,
2013-01-25 14:39:00,17.3,14.1,30.35,SSW,211,1.0,5.0,87,0.00,,,0.00,Wunderground v.1.15,2013-01-25 19:39:00,
2013-01-25 14:40:00,17.3,14.1,30.35,SSW,211,0.0,2.0,87,0.00,,,0.00,Wunderground v.1.15,2013-01-25 19:40:00,
2013-01-25 14:42:00,17.4,14.2,30.35,South,182,2.0,2.0,87,0.00,,,0.00,Wunderground v.1.15,2013-01-25 19:42:00,
2013-01-25 14:43:00,17.5,14.0,30.35,WSW,241,4.0,4.0,86,0.00,,,0.00,Wunderground v.1.15,2013-01-25 19:43:00,
2013-01-25 14:45:00,17.6,14.1,30.35,South,173,2.0,7.0,86,0.00,,,0.00,Wunderground v.1.15,2013-01-25 19:45:00,
2013-01-25 14:47:00,17.7,14.2,30.35,SSE,165,3.0,7.0,86,0.00,,,0.00,Wunderground v.1.15,2013-01-25 19:47:00,
2013-01-25 14:48:00,17.8,14.3,30.35,West,263,2.0,7.0,86,0.00,,,0.00,Wunderground v.1.15,2013-01-25 19:48:00,
2013-01-25 14:50:00,17.8,14.3,30.35,West,273,0.0,2.0,86,0.00,,,0.00,Wunderground v.1.15,2013-01-25 19:50:00,
2013-01-25 14:52:00,17.9,14.4,30.35,West,259,1.0,3.0,86,0.00,,,0.00,Wunderground v.1.15,2013-01-25 19:52:00,
2013-01-25 14:54:00,17.9,14.4,30.35,SW,221,0.0,3.0,86,0.00,,,0.00,Wunderground v.1.15,2013-01-25 19:54:00,
2013-01-25 14:55:00,17.9,14.4,30.36,SSW,204,1.0,3.0,86,0.00,,,0.00,Wunderground v.1.15,2013-01-25 19:55:00,
2013-01-25 14:56:00,17.9,14.4,30.35,SSW,200,0.0,3.0,86,0.00,,,0.00,Wunderground v.1.15,2013-01-25 19:56:00,
2013-01-25 14:58:00,17.9,14.4,30.35,South,190,2.0,3.0,86,0.00,,,0.00,Wunderground v.1.15,2013-01-25 19:58:00,
2013-01-25 14:59:00,17.9,14.4,30.35,South,190,0.0,3.0,86,0.00,,,0.00,Wunderground v.1.15,2013-01-25 19:59:00,
2013-01-25 15:01:00,18.0,14.8,30.35,South,186,0.0,2.0,87,0.00,,,0.00,Wunderground v.1.15,2013-01-25 20:01:00,
2013-01-25 15:03:00,18.0,14.8,30.35,SSW,196,0.0,4.0,87,0.00,,,0.00,Wunderground v.1.15,2013-01-25 20:03:00,
2013-01-25 15:04:00,18.0,14.8,30.35,SSE,166,3.0,4.0,87,0.00,,,0.00,Wunderground v.1.15,2013-01-25 20:04:00,
2013-01-25 15:06:00,18.1,14.9,30.35,South,178,2.0,4.0,87,0.00,,,0.00,Wunderground v.1.15,2013-01-25 20:06:00,
2013-01-25 15:07:00,18.1,14.9,30.35,SSW,197,2.0,4.0,87,0.00,,,0.00,Wunderground v.1.15,2013-01-25 20:07:00,
2013-01-25 15:08:00,18.2,15.0,30.35,West,265,2.0,4.0,87,0.00,,,0.00,Wunderground v.1.15,2013-01-25 20:08:00,
2013-01-25 15:09:00,18.2,15.0,30.35,WSW,247,4.0,8.0,87,0.00,,,0.00,Wunderground v.1.15,2013-01-25 20:09:00,
2013-01-25 15:11:00,18.3,15.1,30.35,South,186,2.0,7.0,87,0.00,,,0.00,Wunderground v.1.15,2013-01-25 20:11:00,
2013-01-25 15:12:00,18.3,15.1,30.34,SW,217,4.0,7.0,87,0.00,,,0.00,Wunderground v.1.15,2013-01-25 20:12:00,
2013-01-25 15:14:00,18.4,14.9,30.34,SW,229,7.0,8.0,86,0.00,,,0.00,Wunderground v.1.15,2013-01-25 20:14:00,
2013-01-25 15:16:00,18.5,15.0,30.34,WNW,286,1.0,9.0,86,0.00,,,0.00,Wunderground v.1.15,2013-01-25 20:16:00,
2013-01-25 15:17:00,18.6,14.8,30.34,SW,227,3.0,9.0,85,0.00,,,0.00,Wunderground v.1.15,2013-01-25 20:17:00,
2013-01-25 15:19:00,18.6,14.8,30.34,SSW,205,1.0,9.0,85,0.00,,,0.00,Wunderground v.1.15,2013-01-25 20:19:00,
2013-01-25 15:20:00,18.6,14.8,30.35,SSW,212,3.0,4.0,85,0.00,,,0.00,Wunderground v.1.15,2013-01-25 20:20:00,
2013-01-25 15:21:00,18.6,14.8,30.34,SSW,202,2.0,8.0,85,0.00,,,0.00,Wunderground v.1.15,2013-01-25 20:21:00,
2013-01-25 15:22:00,18.7,14.9,30.34,SW,214,6.0,8.0,85,0.00,,,0.00,Wunderground v.1.15,2013-01-25 20:22:00,
2013-01-25 15:24:00,18.7,14.9,30.34,West,267,2.0,8.0,85,0.00,,,0.00,Wunderground v.1.15,2013-01-25 20:24:00,
2013-01-25 15:25:00,18.7,14.9,30.34,WSW,250,1.0,8.0,85,0.00,,,0.00,Wunderground v.1.15,2013-01-25 20:25:00,
2013-01-25 15:26:00,18.7,14.9,30.34,SSW,193,2.0,8.0,85,0.00,,,0.00,Wunderground v.1.15,2013-01-25 20:26:00,
2013-01-25 15:28:00,18.7,14.9,30.34,WSW,246,3.0,8.0,85,0.00,,,0.00,Wunderground v.1.15,2013-01-25 20:28:00,
2013-01-25 15:29:00,18.7,14.9,30.34,SW,224,1.0,8.0,85,0.00,,,0.00,Wunderground v.1.15,2013-01-25 20:29:00,
2013-01-25 15:30:00,18.7,14.9,30.34,SW,216,1.0,2.0,85,0.00,,,0.00,Wunderground v.1.15,2013-01-25 20:30:00,
2013-01-25 15:31:00,18.7,14.9,30.34,SW,224,1.0,2.0,85,0.00,,,0.00,Wunderground v.1.15,2013-01-25 20:31:00,
2013-01-25 15:33:00,18.7,15.2,30.34,SSW,212,1.0,2.0,86,0.00,,,0.00,Wunderground v.1.15,2013-01-25 20:33:00,
2013-01-25 15:35:00,18.8,15.3,30.34,SW,215,0.0,2.0,86,0.00,,,0.00,Wunderground v.1.15,2013-01-25 20:35:00,
2013-01-25 15:36:00,18.8,15.3,30.34,South,174,3.0,3.0,86,0.00,,,0.00,Wunderground v.1.15,2013-01-25 20:36:00,
2013-01-25 15:37:00,18.8,15.3,30.34,SW,234,3.0,3.0,86,0.00,,,0.00,Wunderground v.1.15,2013-01-25 20:37:00,
2013-01-25 15:38:00,18.8,15.3,30.34,SW,230,1.0,3.0,86,0.00,,,0.00,Wunderground v.1.15,2013-01-25 20:38:00,
2013-01-25 15:40:00,18.8,15.3,30.34,SSW,205,1.0,1.0,86,0.00,,,0.00,Wunderground v.1.15,2013-01-25 20:40:00,
2013-01-25 15:41:00,18.8,15.6,30.34,SW,225,1.0,2.0,87,0.00,,,0.00,Wunderground v.1.15,2013-01-25 20:41:00,
2013-01-25 15:42:00,18.9,15.7,30.34,SW,236,1.0,2.0,87,0.00,,,0.00,Wunderground v.1.15,2013-01-25 20:42:00,
2013-01-25 15:43:00,18.9,15.7,30.34,SSW,207,4.0,4.0,87,0.00,,,0.00,Wunderground v.1.15,2013-01-25 20:43:00,
2013-01-25 15:45:00,18.9,15.7,30.34,SW,217,0.0,4.0,87,0.00,,,0.00,Wunderground v.1.15,2013-01-25 20:45:00,
2013-01-25 15:47:00,18.9,15.7,30.33,SW,217,0.0,4.0,87,0.00,,,0.00,Wunderground v.1.15,2013-01-25 20:47:00,
2013-01-25 15:49:00,19.0,15.8,30.33,WSW,238,0.0,4.0,87,0.00,,,0.00,Wunderground v.1.15,2013-01-25 20:49:00,
2013-01-25 15:51:00,19.0,15.8,30.33,SSW,198,1.0,2.0,87,0.00,,,0.00,Wunderground v.1.15,2013-01-25 20:51:00,
2013-01-25 15:52:00,19.0,15.8,30.33,South,190,0.0,2.0,87,0.00,,,0.00,Wunderground v.1.15,2013-01-25 20:52:00,
2013-01-25 15:53:00,19.0,15.8,30.33,South,190,0.0,2.0,87,0.00,,,0.00,Wunderground v.1.15,2013-01-25 20:53:00,
2013-01-25 15:55:00,19.1,15.9,30.33,South,186,0.0,2.0,87,0.00,,,0.00,Wunderground v.1.15,2013-01-25 20:55:00,
2013-01-25 15:56:00,19.1,15.9,30.33,SW,228,3.0,3.0,87,0.00,,,0.00,Wunderground v.1.15,2013-01-25 20:56:00,
2013-01-25 15:57:00,19.2,16.0,30.33,SW,236,1.0,4.0,87,0.00,,,0.00,Wunderground v.1.15,2013-01-25 20:57:00,
2013-01-25 15:58:00,19.2,16.0,30.33,SW,236,0.0,4.0,87,0.00,,,0.00,Wunderground v.1.15,2013-01-25 20:58:00,
2013-01-25 16:01:00,19.3,16.1,30.33,West,265,0.0,2.0,87,0.00,,,0.00,Wunderground v.1.15,2013-01-25 21:01:00,
2013-01-25 16:03:00,19.3,16.1,30.32,SW,217,1.0,2.0,87,0.00,,,0.00,Wunderground v.1.15,2013-01-25 21:03:00,
2013-01-25 16:06:00,19.4,16.2,30.32,South,176,2.0,3.0,87,0.00,,,0.00,Wunderground v.1.15,2013-01-25 21:06:00,
2013-01-25 16:07:00,19.5,16.3,30.32,SSW,194,3.0,3.0,87,0.00,,,0.00,Wunderground v.1.15,2013-01-25 21:07:00,
2013-01-25 16:08:00,19.5,16.3,30.32,SW,215,1.0,3.0,87,0.00,,,0.00,Wunderground v.1.15,2013-01-25 21:08:00,
2013-01-25 16:11:00,19.5,16.3,30.32,SSW,208,0.0,2.0,87,0.00,,,0.00,Wunderground v.1.15,2013-01-25 21:11:00,
2013-01-25 16:12:00,19.6,16.4,30.32,WSW,249,3.0,3.0,87,0.00,,,0.00,Wunderground v.1.15,2013-01-25 21:12:00,
2013-01-25 16:13:00,19.6,16.4,30.31,WSW,251,0.0,3.0,87,0.00,,,0.00,Wunderground v.1.15,2013-01-25 21:13:00,
2013-01-25 16:17:00,19.7,16.5,30.32,WSW,251,0.0,3.0,87,0.00,,,0.00,Wunderground v.1.15,2013-01-25 21:17:00,
2013-01-25 16:19:00,19.7,16.5,30.31,WSW,251,0.0,3.0,87,0.00,,,0.00,Wunderground v.1.15,2013-01-25 21:19:00,
2013-01-25 16:22:00,19.8,16.6,30.31,WSW,248,0.0,2.0,87,0.00,,,0.00,Wunderground v.1.15,2013-01-25 21:22:00,
2013-01-25 16:24:00,19.8,16.6,30.31,WSW,252,1.0,3.0,87,0.00,,,0.00,Wunderground v.1.15,2013-01-25 21:24:00,
2013-01-25 16:27:00,19.9,16.7,30.31,WSW,257,1.0,3.0,87,0.00,,,0.00,Wunderground v.1.15,2013-01-25 21:27:00,
2013-01-25 16:29:00,19.9,16.7,30.31,West,276,0.0,3.0,87,0.00,,,0.00,Wunderground v.1.15,2013-01-25 21:29:00,
2013-01-25 16:30:00,19.9,16.7,30.31,West,271,1.0,1.0,87,0.00,,,0.00,Wunderground v.1.15,2013-01-25 21:30:00,
2013-01-25 16:32:00,20.0,16.8,30.31,West,263,0.0,2.0,87,0.00,,,0.00,Wunderground v.1.15,2013-01-25 21:32:00,
2013-01-25 16:35:00,20.0,16.8,30.31,SW,227,1.0,2.0,87,0.00,,,0.00,Wunderground v.1.15,2013-01-25 21:35:00,
2013-01-25 16:37:00,20.0,16.8,30.31,WSW,254,1.0,2.0,87,0.00,,,0.00,Wunderground v.1.15,2013-01-25 21:37:00,
2013-01-25 16:40:00,20.1,16.9,30.31,SW,236,2.0,2.0,87,0.00,,,0.00,Wunderground v.1.15,2013-01-25 21:40:00,
2013-01-25 16:42:00,20.2,17.0,30.31,SSW,213,1.0,2.0,87,0.00,,,0.00,Wunderground v.1.15,2013-01-25 21:42:00,
2013-01-25 16:43:00,20.2,17.0,30.31,WSW,250,3.0,3.0,87,0.00,,,0.00,Wunderground v.1.15,2013-01-25 21:43:00,
2013-01-25 16:45:00,20.2,17.0,30.31,SW,214,0.0,3.0,87,0.00,,,0.00,Wunderground v.1.15,2013-01-25 21:45:00,
2013-01-25 16:48:00,20.3,17.0,30.31,SW,223,2.0,3.0,87,0.00,,,0.00,Wunderground v.1.15,2013-01-25 21:48:00,
2013-01-25 16:50:00,20.3,17.0,30.30,WSW,239,0.0,3.0,87,0.00,,,0.00,Wunderground v.1.15,2013-01-25 21:50:00,
2013-01-25 16:51:00,20.3,17.0,30.30,SW,234,0.0,3.0,87,0.00,,,0.00,Wunderground v.1.15,2013-01-25 21:51:00,
2013-01-25 16:53:00,20.4,17.1,30.30,South,186,1.0,3.0,87,0.00,,,0.00,Wunderground v.1.15,2013-01-25 21:53:00,
2013-01-25 16:54:00,20.4,17.1,30.30,SSW,207,0.0,3.0,87,0.00,,,0.00,Wunderground v.1.15,2013-01-25 21:54:00,
2013-01-25 16:56:00,20.4,17.1,30.30,SW,216,0.0,3.0,87,0.00,,,0.00,Wunderground v.1.15,2013-01-25 21:56:00,
2013-01-25 16:58:00,20.5,17.2,30.30,WSW,245,4.0,5.0,87,0.00,,,0.00,Wunderground v.1.15,2013-01-25 21:58:00,
2013-01-25 16:59:00,20.5,17.2,30.30,SW,222,1.0,5.0,87,0.00,,,0.00,Wunderground v.1.15,2013-01-25 21:59:00,
2013-01-25 17:01:00,20.5,17.2,30.30,SSW,208,1.0,3.0,87,0.00,,,0.00,Wunderground v.1.15,2013-01-25 22:01:00,
2013-01-25 17:04:00,20.6,17.3,30.30,SSW,200,1.0,3.0,87,0.00,,,0.00,Wunderground v.1.15,2013-01-25 22:04:00,
2013-01-25 17:06:00,20.6,17.3,30.30,SSW,200,0.0,3.0,87,0.00,,,0.00,Wunderground v.1.15,2013-01-25 22:06:00,
2013-01-25 17:07:00,20.6,17.3,30.30,SSW,201,0.0,3.0,87,0.00,,,0.00,Wunderground v.1.15,2013-01-25 22:07:00,
2013-01-25 17:09:00,20.6,17.3,30.30,SW,229,1.0,3.0,87,0.00,,,0.00,Wunderground v.1.15,2013-01-25 22:09:00,
2013-01-25 17:11:00,20.6,17.3,30.30,WSW,240,0.0,1.0,87,0.00,,,0.00,Wunderground v.1.15,2013-01-25 22:11:00,
2013-01-25 17:12:00,20.6,17.3,30.30,WSW,240,0.0,2.0,87,0.00,,,0.00,Wunderground v.1.15,2013-01-25 22:12:00,
2013-01-25 17:14:00,20.7,17.4,30.31,WSW,240,0.0,2.0,87,0.00,,,0.00,Wunderground v.1.15,2013-01-25 22:14:00,
2013-01-25 17:16:00,20.7,17.4,30.31,WSW,240,0.0,2.0,87,0.00,,,0.00,Wunderground v.1.15,2013-01-25 22:16:00,
2013-01-25 17:17:00,20.7,17.4,30.31,WSW,240,0.0,2.0,87,0.00,,,0.00,Wunderground v.1.15,2013-01-25 22:17:00,
2013-01-25 17:19:00,20.7,17.4,30.31,WSW,240,1.0,2.0,87,0.00,,,0.00,Wunderground v.1.15,2013-01-25 22:19:00,
2013-01-25 17:20:00,20.7,17.4,30.31,WSW,240,0.0,0.0,87,0.00,,,0.00,Wunderground v.1.15,2013-01-25 22:20:00,
2013-01-25 17:21:00,20.7,17.4,30.31,WSW,240,0.0,0.0,87,0.00,,,0.00,Wunderground v.1.15,2013-01-25 22:21:00,
2013-01-25 17:23:00,20.7,17.4,30.31,WNW,286,2.0,2.0,87,0.00,,,0.00,Wunderground v.1.15,2013-01-25 22:23:00,
2013-01-25 17:25:00,20.7,17.4,30.31,WNW,287,1.0,2.0,87,0.00,,,0.00,Wunderground v.1.15,2013-01-25 22:25:00,
2013-01-25 17:26:00,20.7,17.4,30.31,NW,309,0.0,2.0,87,0.00,,,0.00,Wunderground v.1.15,2013-01-25 22:26:00,
2013-01-25 17:28:00,20.7,17.4,30.31,NW,307,1.0,2.0,87,0.00,,,0.00,Wunderground v.1.15,2013-01-25 22:28:00,
2013-01-25 17:30:00,20.7,17.4,30.31,NW,307,2.0,2.0,87,0.00,,,0.00,Wunderground v.1.15,2013-01-25 22:30:00,
2013-01-25 17:31:00,20.6,17.3,30.31,NW,307,1.0,2.0,87,0.00,,,0.00,Wunderground v.1.15,2013-01-25 22:31:00,
2013-01-25 17:33:00,20.6,17.3,30.31,NW,307,0.0,2.0,87,0.00,,,0.00,Wunderground v.1.15,2013-01-25 22:33:00,
2013-01-25 17:35:00,20.6,17.3,30.31,WNW,297,1.0,3.0,87,0.00,,,0.00,Wunderground v.1.15,2013-01-25 22:35:00,
2013-01-25 17:36:00,20.6,17.3,30.30,WNW,291,2.0,3.0,87,0.00,,,0.00,Wunderground v.1.15,2013-01-25 22:36:00,
2013-01-25 17:38:00,20.6,17.3,30.30,WNW,291,0.0,3.0,87,0.00,,,0.00,Wunderground v.1.15,2013-01-25 22:38:00,
2013-01-25 17:40:00,20.6,17.3,30.30,WSW,240,1.0,2.0,87,0.00,,,0.00,Wunderground v.1.15,2013-01-25 22:40:00,
2013-01-25 17:41:00,20.6,17.3,30.30,SW,236,1.0,2.0,87,0.00,,,0.00,Wunderground v.1.15,2013-01-25 22:41:00,
2013-01-25 17:42:00,20.6,17.3,30.30,SW,232,2.0,2.0,87,0.00,,,0.00,Wunderground v.1.15,2013-01-25 22:42:00,
2013-01-25 17:43:00,20.6,17.3,30.30,SW,219,1.0,3.0,87,0.00,,,0.00,Wunderground v.1.15,2013-01-25 22:43:00,
2013-01-25 17:45:00,20.6,17.3,30.29,SW,217,1.0,3.0,87,0.00,,,0.00,Wunderground v.1.15,2013-01-25 22:45:00,
2013-01-25 17:46:00,20.6,17.3,30.29,SSW,202,1.0,3.0,87,0.00,,,0.00,Wunderground v.1.15,2013-01-25 22:46:00,
2013-01-25 17:47:00,20.6,17.3,30.29,SSW,202,0.0,3.0,87,0.00,,,0.00,Wunderground v.1.15,2013-01-25 22:47:00,
2013-01-25 17:48:00,20.6,17.3,30.29,SSW,201,0.0,3.0,87,0.00,,,0.00,Wunderground v.1.15,2013-01-25 22:48:00,
2013-01-25 17:51:00,20.6,17.6,30.29,SSW,202,0.0,1.0,88,0.00,,,0.00,Wunderground v.1.15,2013-01-25 22:51:00,
2013-01-25 17:52:00,20.6,17.6,30.29,SSW,202,0.0,1.0,88,0.00,,,0.00,Wunderground v.1.15,2013-01-25 22:52:00,
2013-01-25 17:54:00,20.6,17.6,30.29,SSW,209,0.0,1.0,88,0.00,,,0.00,Wunderground v.1.15,2013-01-25 22:54:00,
2013-01-25 17:56:00,20.6,17.3,30.30,WNW,295,1.0,2.0,87,0.00,,,0.00,Wunderground v.1.15,2013-01-25 22:56:00,
2013-01-25 17:57:00,20.6,17.3,30.30,NW,323,2.0,2.0,87,0.00,,,0.00,Wunderground v.1.15,2013-01-25 22:57:00,
2013-01-25 17:59:00,20.6,17.6,30.30,ENE,62,0.0,2.0,88,0.00,,,0.00,Wunderground v.1.15,2013-01-25 22:59:00,
2013-01-25 18:01:00,20.6,17.6,30.30,NNW,340,0.0,0.0,88,0.00,,,0.00,Wunderground v.1.15,2013-01-25 23:01:00,
2013-01-25 18:02:00,20.6,17.6,30.30,NW,306,3.0,3.0,88,0.00,,,0.00,Wunderground v.1.15,2013-01-25 23:02:00,
2013-01-25 18:04:00,20.6,17.6,30.30,NNE,22,0.0,3.0,88,0.00,,,0.00,Wunderground v.1.15,2013-01-25 23:04:00,
2013-01-25 18:07:00,20.6,17.6,30.30,NNW,336,1.0,3.0,88,0.00,,,0.00,Wunderground v.1.15,2013-01-25 23:07:00,
2013-01-25 18:09:00,20.5,17.5,30.30,North,349,1.0,5.0,88,0.00,,,0.00,Wunderground v.1.15,2013-01-25 23:09:00,
2013-01-25 18:12:00,20.5,17.5,30.30,NNW,328,2.0,4.0,88,0.00,,,0.00,Wunderground v.1.15,2013-01-25 23:12:00,
2013-01-25 18:13:00,20.5,17.5,30.30,NW,325,1.0,4.0,88,0.00,,,0.00,Wunderground v.1.15,2013-01-25 23:13:00,
2013-01-25 18:14:00,20.5,17.5,30.31,NNW,334,1.0,4.0,88,0.00,,,0.00,Wunderground v.1.15,2013-01-25 23:14:00,
2013-01-25 18:17:00,20.5,17.5,30.31,NW,318,1.0,4.0,88,0.00,,,0.00,Wunderground v.1.15,2013-01-25 23:17:00,
2013-01-25 18:18:00,20.5,17.5,30.31,NW,314,3.0,4.0,88,0.00,,,0.00,Wunderground v.1.15,2013-01-25 23:18:00,
2013-01-25 18:20:00,20.6,17.6,30.31,NW,325,3.0,4.0,88,0.00,,,0.00,Wunderground v.1.15,2013-01-25 23:20:00,
2013-01-25 18:23:00,20.6,17.9,30.31,West,266,6.0,7.0,89,0.00,,,0.00,Wunderground v.1.15,2013-01-25 23:23:00,
2013-01-25 18:26:00,20.8,18.1,30.31,WSW,257,3.0,7.0,89,0.00,,,0.00,Wunderground v.1.15,2013-01-25 23:26:00,
2013-01-25 18:28:00,21.1,18.6,30.31,WSW,240,4.0,7.0,90,0.00,,,0.00,Wunderground v.1.15,2013-01-25 23:28:00,
2013-01-25 18:31:00,21.3,18.8,30.31,SW,223,5.0,6.0,90,0.00,,,0.00,Wunderground v.1.15,2013-01-25 23:31:00,
2013-01-25 18:33:00,21.6,19.1,30.31,SSW,203,2.0,7.0,90,0.00,,,0.00,Wunderground v.1.15,2013-01-25 23:33:00,
2013-01-25 18:34:00,21.6,19.1,30.31,West,271,3.0,7.0,90,0.00,,,0.00,Wunderground v.1.15,2013-01-25 23:34:00,
2013-01-25 18:36:00,21.8,19.3,30.31,West,269,5.0,9.0,90,0.00,,,0.00,Wunderground v.1.15,2013-01-25 23:36:00,
2013-01-25 18:39:00,22.0,19.5,30.30,WNW,296,4.0,9.0,90,0.00,,,0.00,Wunderground v.1.15,2013-01-25 23:39:00,
2013-01-25 18:41:00,22.2,19.7,30.30,WNW,288,7.0,7.0,90,0.00,,,0.00,Wunderground v.1.15,2013-01-25 23:41:00,
2013-01-25 18:44:00,22.3,19.6,30.30,WSW,243,4.0,10.0,89,0.00,,,0.00,Wunderground v.1.15,2013-01-25 23:44:00,
2013-01-25 18:46:00,22.4,19.6,30.30,SW,218,3.0,10.0,89,0.00,,,0.00,Wunderground v.1.15,2013-01-25 23:46:00,
2013-01-25 18:49:00,22.5,19.7,30.30,West,260,5.0,10.0,89,0.00,,,0.00,Wunderground v.1.15,2013-01-25 23:49:00,
2013-01-25 18:51:00,22.6,19.8,30.30,WSW,243,3.0,5.0,89,0.00,,,0.00,Wunderground v.1.15,2013-01-25 23:51:00,
2013-01-25 18:54:00,22.6,19.8,30.30,WSW,244,2.0,8.0,89,0.00,,,0.00,Wunderground v.1.15,2013-01-25 23:54:00,
2013-01-25 18:57:00,22.7,19.9,30.30,SSW,213,2.0,8.0,89,0.00,,,0.00,Wunderground v.1.15,2013-01-25 23:57:00,
2013-01-25 18:59:00,22.7,19.9,30.30,West,261,5.0,8.0,89,0.00,,,0.00,Wunderground v.1.15,2013-01-25 23:59:00,
2013-01-25 19:00:00,22.8,20.0,30.30,SW,236,4.0,4.0,89,0.00,,,0.00,Wunderground v.1.15,2013-01-26 00:00:00,
2013-01-25 19:02:00,22.9,20.1,30.30,West,263,5.0,6.0,89,0.00,,,0.00,Wunderground v.1.15,2013-01-26 00:02:00,
2013-01-25 19:05:00,22.9,20.1,30.30,WNW,288,1.0,6.0,89,0.00,,,0.00,Wunderground v.1.15,2013-01-26 00:05:00,
2013-01-25 19:08:00,23.0,20.2,30.30,West,268,4.0,6.0,89,0.00,,,0.00,Wunderground v.1.15,2013-01-26 00:08:00,
2013-01-25 19:10:00,23.0,20.2,30.30,WNW,284,2.0,2.0,89,0.00,,,0.00,Wunderground v.1.15,2013-01-26 00:10:00,
2013-01-25 19:11:00,23.1,20.3,30.30,WNW,284,0.0,2.0,89,0.00,,,0.00,Wunderground v.1.15,2013-01-26 00:11:00,
2013-01-25 19:13:00,23.1,20.3,30.30,West,268,3.0,5.0,89,0.00,,,0.00,Wunderground v.1.15,2013-01-26 00:13:00,
2013-01-25 19:15:00,23.2,20.7,30.30,West,275,2.0,5.0,90,0.00,,,0.00,Wunderground v.1.15,2013-01-26 00:15:00,
2013-01-25 19:16:00,23.3,20.8,30.30,WNW,285,3.0,5.0,90,0.00,,,0.00,Wunderground v.1.15,2013-01-26 00:16:00,
2013-01-25 19:19:00,23.3,20.8,30.30,WNW,288,2.0,5.0,90,0.00,,,0.00,Wunderground v.1.15,2013-01-26 00:19:00,
2013-01-25 19:20:00,23.4,20.9,30.30,WSW,257,1.0,2.0,90,0.00,,,0.00,Wunderground v.1.15,2013-01-26 00:20:00,
2013-01-25 19:21:00,23.4,20.9,30.29,SW,227,1.0,4.0,90,0.00,,,0.00,Wunderground v.1.15,2013-01-26 00:21:00,
2013-01-25 19:24:00,23.5,21.0,30.29,West,259,2.0,5.0,90,0.00,,,0.00,Wunderground v.1.15,2013-01-26 00:24:00,
2013-01-25 19:25:00,23.5,21.0,30.29,SW,234,2.0,5.0,90,0.00,,,0.00,Wunderground v.1.15,2013-01-26 00:25:00,
2013-01-25 19:26:00,23.6,21.1,30.29,SW,219,3.0,5.0,90,0.00,,,0.00,Wunderground v.1.15,2013-01-26 00:26:00,
2013-01-25 19:29:00,23.7,21.2,30.30,West,273,3.0,7.0,90,0.00,,,0.00,Wunderground v.1.15,2013-01-26 00:29:00,
2013-01-25 19:31:00,23.8,21.3,30.29,West,259,5.0,5.0,90,0.00,,,0.00,Wunderground v.1.15,2013-01-26 00:31:00,
2013-01-25 19:32:00,23.8,21.3,30.29,SW,232,2.0,5.0,90,0.00,,,0.00,Wunderground v.1.15,2013-01-26 00:32:00,
2013-01-25 19:35:00,24.0,21.5,30.29,SW,230,3.0,5.0,90,0.00,,,0.00,Wunderground v.1.15,2013-01-26 00:35:00,
2013-01-25 19:36:00,24.0,21.5,30.29,SW,216,4.0,5.0,90,0.00,,,0.00,Wunderground v.1.15,2013-01-26 00:36:00,
2013-01-25 19:37:00,24.0,21.5,30.29,SW,227,1.0,5.0,90,0.00,,,0.00,Wunderground v.1.15,2013-01-26 00:37:00,
2013-01-25 19:41:00,24.3,21.8,30.29,SSW,195,3.0,6.0,90,0.00,,,0.00,Wunderground v.1.15,2013-01-26 00:41:00,
2013-01-25 19:42:00,24.4,21.9,30.29,WSW,246,0.0,6.0,90,0.00,,,0.00,Wunderground v.1.15,2013-01-26 00:42:00,
2013-01-25 19:43:00,24.4,21.9,30.29,WSW,246,0.0,6.0,90,0.00,,,0.00,Wunderground v.1.15,2013-01-26 00:43:00,
2013-01-25 19:46:00,24.6,22.1,30.29,West,281,3.0,6.0,90,0.00,,,0.00,Wunderground v.1.15,2013-01-26 00:46:00,
2013-01-25 19:48:00,24.7,22.2,30.29,West,277,3.0,6.0,90,0.00,,,0.00,Wunderground v.1.15,2013-01-26 00:48:00,
2013-01-25 19:51:00,24.9,22.4,30.30,West,279,5.0,5.0,90,0.00,,,0.00,Wunderground v.1.15,2013-01-26 00:51:00,
2013-01-25 19:52:00,25.0,22.5,30.30,WSW,242,3.0,5.0,90,0.00,,,0.00,Wunderground v.1.15,2013-01-26 00:52:00,
2013-01-25 19:53:00,25.1,22.6,30.29,WSW,244,4.0,6.0,90,0.00,,,0.00,Wunderground v.1.15,2013-01-26 00:53:00,
2013-01-25 19:54:00,25.1,22.6,30.30,WSW,242,3.0,6.0,90,0.00,,,0.00,Wunderground v.1.15,2013-01-26 00:54:00,
2013-01-25 19:56:00,25.3,22.8,30.29,WNW,284,2.0,6.0,90,0.00,,,0.00,Wunderground v.1.15,2013-01-26 00:56:00,
2013-01-25 19:57:00,25.3,22.8,30.29,SW,215,1.0,6.0,90,0.00,,,0.00,Wunderground v.1.15,2013-01-26 00:57:00,
2013-01-25 19:58:00,25.3,22.8,30.29,West,275,3.0,6.0,90,0.00,,,0.00,Wunderground v.1.15,2013-01-26 00:58:00,
2013-01-25 20:00:00,25.4,22.9,30.29,West,274,2.0,3.0,90,0.00,,,0.00,Wunderground v.1.15,2013-01-26 01:00:00,
2013-01-25 20:02:00,25.6,23.1,30.29,West,264,3.0,6.0,90,0.00,,,0.00,Wunderground v.1.15,2013-01-26 01:02:00,
2013-01-25 20:03:00,25.6,23.1,30.30,WSW,251,2.0,6.0,90,0.00,,,0.00,Wunderground v.1.15,2013-01-26 01:03:00,
2013-01-25 20:05:00,25.7,23.2,30.30,SSW,196,3.0,7.0,90,0.00,,,0.00,Wunderground v.1.15,2013-01-26 01:05:00,
2013-01-25 20:07:00,25.8,23.3,30.30,WSW,240,4.0,7.0,90,0.00,,,0.00,Wunderground v.1.15,2013-01-26 01:07:00,
2013-01-25 20:08:00,25.9,23.4,30.29,WSW,252,6.0,7.0,90,0.00,,,0.00,Wunderground v.1.15,2013-01-26 01:08:00,
2013-01-25 20:10:00,26.0,23.5,30.30,West,266,2.0,3.0,90,0.00,,,0.00,Wunderground v.1.15,2013-01-26 01:10:00,
2013-01-25 20:12:00,26.1,23.6,30.29,SW,231,5.0,5.0,90,0.00,,,0.00,Wunderground v.1.15,2013-01-26 01:12:00,
2013-01-25 20:13:00,26.1,23.6,30.29,WSW,238,2.0,7.0,90,0.00,,,0.00,Wunderground v.1.15,2013-01-26 01:13:00,
2013-01-25 20:14:00,26.1,23.6,30.29,SSW,211,1.0,7.0,90,0.00,,,0.00,Wunderground v.1.15,2013-01-26 01:14:00,
2013-01-25 20:15:00,26.2,23.7,30.29,West,265,2.0,7.0,90,0.00,,,0.00,Wunderground v.1.15,2013-01-26 01:15:00,
2013-01-25 20:18:00,26.3,23.8,30.29,SW,229,2.0,7.0,90,0.00,,,0.00,Wunderground v.1.15,2013-01-26 01:18:00,
2013-01-25 20:19:00,26.4,23.9,30.29,WSW,245,1.0,7.0,90,0.00,,,0.00,Wunderground v.1.15,2013-01-26 01:19:00,
2013-01-25 20:21:00,26.4,23.9,30.29,WSW,255,1.0,2.0,90,0.00,,,0.00,Wunderground v.1.15,2013-01-26 01:21:00,
2013-01-25 20:23:00,26.5,24.0,30.29,WNW,287,2.0,5.0,90,0.00,,,0.00,Wunderground v.1.15,2013-01-26 01:23:00,
2013-01-25 20:24:00,26.5,24.0,30.30,SW,219,5.0,5.0,90,0.00,,,0.00,Wunderground v.1.15,2013-01-26 01:24:00,
2013-01-25 20:26:00,26.6,24.1,30.29,WSW,250,3.0,5.0,90,0.00,,,0.00,Wunderground v.1.15,2013-01-26 01:26:00,
2013-01-25 20:28:00,26.6,24.1,30.29,SW,215,1.0,5.0,90,0.00,,,0.00,Wunderground v.1.15,2013-01-26 01:28:00,
2013-01-25 20:29:00,26.7,24.2,30.29,SW,223,2.0,6.0,90,0.00,,,0.00,Wunderground v.1.15,2013-01-26 01:29:00,
2013-01-25 20:31:00,26.7,24.2,30.29,SW,232,0.0,6.0,90,0.00,,,0.00,Wunderground v.1.15,2013-01-26 01:31:00,
2013-01-25 20:33:00,26.8,24.3,30.29,WSW,249,3.0,6.0,90,0.00,,,0.00,Wunderground v.1.15,2013-01-26 01:33:00,
2013-01-25 20:34:00,26.9,24.4,30.29,WSW,240,2.0,6.0,90,0.00,,,0.00,Wunderground v.1.15,2013-01-26 01:34:00,
2013-01-25 20:36:00,26.9,24.4,30.29,SSW,203,0.0,6.0,90,0.00,,,0.00,Wunderground v.1.15,2013-01-26 01:36:00,
2013-01-25 20:39:00,27.0,24.5,30.29,WSW,254,3.0,6.0,90,0.00,,,0.00,Wunderground v.1.15,2013-01-26 01:39:00,
2013-01-25 20:42:00,27.0,24.5,30.29,South,175,3.0,5.0,90,0.00,,,0.00,Wunderground v.1.15,2013-01-26 01:42:00,
2013-01-25 20:44:00,27.1,24.6,30.29,SW,219,1.0,5.0,90,0.00,,,0.00,Wunderground v.1.15,2013-01-26 01:44:00,
2013-01-25 20:47:00,27.3,24.8,30.29,SW,225,3.0,9.0,90,0.00,,,0.00,Wunderground v.1.15,2013-01-26 01:47:00,
2013-01-25 20:49:00,27.4,24.9,30.29,SW,221,3.0,9.0,90,0.00,,,0.00,Wunderground v.1.15,2013-01-26 01:49:00,
2013-01-25 20:50:00,27.4,24.9,30.29,West,261,3.0,3.0,90,0.00,,,0.00,Wunderground v.1.15,2013-01-26 01:50:00,
2013-01-25 20:53:00,27.5,25.0,30.29,WSW,245,3.0,6.0,90,0.00,,,0.00,Wunderground v.1.15,2013-01-26 01:53:00,
2013-01-25 20:54:00,27.5,25.0,30.29,WSW,246,6.0,6.0,90,0.00,,,0.00,Wunderground v.1.15,2013-01-26 01:54:00,
2013-01-25 20:55:00,27.5,25.0,30.29,SW,226,3.0,6.0,90,0.00,,,0.00,Wunderground v.1.15,2013-01-26 01:55:00,
2013-01-25 20:59:00,27.6,25.1,30.29,SW,221,2.0,7.0,90,0.00,,,0.00,Wunderground v.1.15,2013-01-26 01:59:00,
2013-01-25 21:00:00,27.6,25.1,30.29,SW,234,3.0,4.0,90,0.00,,,0.00,Wunderground v.1.15,2013-01-26 02:00:00,
2013-01-25 21:04:00,27.7,25.2,30.28,SW,228,2.0,6.0,90,0.00,,,0.00,Wunderground v.1.15,2013-01-26 02:04:00,
2013-01-25 21:05:00,27.7,25.2,30.28,WSW,257,3.0,6.0,90,0.00,,,0.00,Wunderground v.1.15,2013-01-26 02:05:00,
2013-01-25 21:09:00,27.8,25.2,30.29,SSW,207,3.0,8.0,90,0.00,,,0.00,Wunderground v.1.15,2013-01-26 02:09:00,
2013-01-25 21:10:00,27.8,25.2,30.29,SW,221,3.0,3.0,90,0.00,,,0.00,Wunderground v.1.15,2013-01-26 02:10:00,
2013-01-25 21:11:00,27.8,25.2,30.29,SW,225,3.0,4.0,90,0.00,,,0.00,Wunderground v.1.15,2013-01-26 02:11:00,
2013-01-25 21:14:00,27.8,25.2,30.28,SW,229,2.0,4.0,90,0.00,,,0.00,Wunderground v.1.15,2013-01-26 02:14:00,
2013-01-25 21:15:00,27.8,25.2,30.29,West,277,3.0,5.0,90,0.00,,,0.00,Wunderground v.1.15,2013-01-26 02:15:00,
2013-01-25 21:16:00,27.8,25.2,30.29,SW,235,3.0,5.0,90,0.00,,,0.00,Wunderground v.1.15,2013-01-26 02:16:00,
2013-01-25 21:20:00,27.9,25.3,30.29,SSW,202,4.0,5.0,90,0.00,,,0.00,Wunderground v.1.15,2013-01-26 02:20:00,
2013-01-25 21:21:00,27.9,25.3,30.29,SW,226,3.0,5.0,90,0.00,,,0.00,Wunderground v.1.15,2013-01-26 02:21:00,
2013-01-25 21:22:00,27.9,25.3,30.28,SW,236,0.0,5.0,90,0.00,,,0.00,Wunderground v.1.15,2013-01-26 02:22:00,
2013-01-25 21:25:00,27.9,25.3,30.28,WSW,252,2.0,5.0,90,0.00,,,0.00,Wunderground v.1.15,2013-01-26 02:25:00,
2013-01-25 21:26:00,27.9,25.3,30.28,WSW,252,1.0,5.0,90,0.00,,,0.00,Wunderground v.1.15,2013-01-26 02:26:00,
2013-01-25 21:27:00,28.0,25.4,30.28,SW,221,0.0,5.0,90,0.00,,,0.00,Wunderground v.1.15,2013-01-26 02:27:00,
2013-01-25 21:30:00,28.0,25.4,30.28,SW,235,1.0,2.0,90,0.00,,,0.00,Wunderground v.1.15,2013-01-26 02:30:00,
2013-01-25 21:31:00,28.0,25.4,30.29,SW,234,0.0,2.0,90,0.00,,,0.00,Wunderground v.1.15,2013-01-26 02:31:00,
2013-01-25 21:32:00,28.0,25.4,30.28,SW,234,0.0,2.0,90,0.00,,,0.00,Wunderground v.1.15,2013-01-26 02:32:00,
2013-01-25 21:35:00,28.0,25.7,30.28,ENE,75,0.0,3.0,91,0.00,,,0.00,Wunderground v.1.15,2013-01-26 02:35:00,
2013-01-25 21:36:00,28.1,25.8,30.28,ENE,75,1.0,3.0,91,0.00,,,0.00,Wunderground v.1.15,2013-01-26 02:36:00,
2013-01-25 21:38:00,28.1,25.8,30.29,ENE,75,0.0,3.0,91,0.00,,,0.00,Wunderground v.1.15,2013-01-26 02:38:00,
2013-01-25 21:40:00,28.2,25.9,30.29,SE,132,1.0,2.0,91,0.00,,,0.00,Wunderground v.1.15,2013-01-26 02:40:00,
2013-01-25 21:41:00,28.2,25.9,30.29,SE,138,0.0,2.0,91,0.00,,,0.00,Wunderground v.1.15,2013-01-26 02:41:00,
2013-01-25 21:43:00,28.3,26.0,30.28,SE,139,1.0,3.0,91,0.00,,,0.00,Wunderground v.1.15,2013-01-26 02:43:00,
2013-01-25 21:46:00,28.3,26.0,30.28,SE,139,0.0,3.0,91,0.00,,,0.00,Wunderground v.1.15,2013-01-26 02:46:00,
2013-01-25 21:47:00,28.3,26.0,30.28,SE,139,0.0,3.0,91,0.00,,,0.00,Wunderground v.1.15,2013-01-26 02:47:00,
2013-01-25 21:48:00,28.4,26.1,30.28,SE,139,0.0,3.0,91,0.00,,,0.00,Wunderground v.1.15,2013-01-26 02:48:00,
2013-01-25 21:51:00,28.4,26.1,30.28,SE,133,1.0,2.0,91,0.00,,,0.00,Wunderground v.1.15,2013-01-26 02:51:00,
2013-01-25 21:52:00,28.5,26.2,30.28,SE,133,0.0,2.0,91,0.00,,,0.00,Wunderground v.1.15,2013-01-26 02:52:00,
2013-01-25 21:53:00,28.5,26.2,30.28,SE,143,2.0,3.0,91,0.00,,,0.00,Wunderground v.1.15,2013-01-26 02:53:00,
2013-01-25 21:56:00,28.6,26.3,30.28,SSE,157,1.0,4.0,91,0.00,,,0.00,Wunderground v.1.15,2013-01-26 02:56:00,
2013-01-25 21:57:00,28.8,26.5,30.28,SSE,157,2.0,4.0,91,0.00,,,0.00,Wunderground v.1.15,2013-01-26 02:57:00,
2013-01-25 21:58:00,28.9,26.9,30.28,SSE,157,0.0,4.0,92,0.00,,,0.00,Wunderground v.1.15,2013-01-26 02:58:00,
2013-01-25 21:59:00,29.0,27.0,30.28,East,101,0.0,4.0,92,0.00,,,0.00,Wunderground v.1.15,2013-01-26 02:59:00,
2013-01-25 22:01:00,29.2,27.2,30.28,SE,140,0.0,1.0,92,0.00,,,0.00,Wunderground v.1.15,2013-01-26 03:01:00,
2013-01-25 22:03:00,29.3,27.3,30.28,NNW,345,3.0,3.0,92,0.00,,,0.00,Wunderground v.1.15,2013-01-26 03:03:00,
2013-01-25 22:04:00,29.4,27.1,30.28,WSW,244,5.0,7.0,91,0.00,,,0.00,Wunderground v.1.15,2013-01-26 03:04:00,
2013-01-25 22:06:00,29.5,27.5,30.28,WNW,290,5.0,7.0,92,0.00,,,0.00,Wunderground v.1.15,2013-01-26 03:06:00,
2013-01-25 22:08:00,30.1,28.1,30.28,West,277,3.0,7.0,92,0.00,,,0.00,Wunderground v.1.15,2013-01-26 03:08:00,
2013-01-25 22:09:00,30.4,28.4,30.28,West,274,4.0,7.0,92,0.00,,,0.00,Wunderground v.1.15,2013-01-26 03:09:00,
2013-01-25 22:11:00,30.8,28.8,30.28,West,279,6.0,8.0,92,0.00,,,0.00,Wunderground v.1.15,2013-01-26 03:11:00,
2013-01-25 22:13:00,31.4,29.1,30.28,SSW,213,2.0,8.0,91,0.00,,,0.00,Wunderground v.1.15,2013-01-26 03:13:00,
2013-01-25 22:14:00,31.5,29.2,30.28,SSW,211,2.0,8.0,91,0.00,,,0.00,Wunderground v.1.15,2013-01-26 03:14:00,
2013-01-25 22:15:00,31.7,29.1,30.28,West,275,6.0,13.0,90,0.00,,,0.00,Wunderground v.1.15,2013-01-26 03:15:00,
2013-01-25 22:16:00,31.9,29.3,30.28,West,273,3.0,13.0,90,0.00,,,0.00,Wunderground v.1.15,2013-01-26 03:16:00,
2013-01-25 22:19:00,32.3,29.4,30.28,WNW,296,9.0,13.0,89,0.00,,,0.00,Wunderground v.1.15,2013-01-26 03:19:00,
2013-01-25 22:21:00,32.5,29.3,30.28,West,271,2.0,5.0,88,0.00,,,0.00,Wunderground v.1.15,2013-01-26 03:21:00,
2013-01-25 22:22:00,32.6,29.4,30.28,WSW,250,3.0,5.0,88,0.00,,,0.00,Wunderground v.1.15,2013-01-26 03:22:00,
2013-01-25 22:24:00,32.8,29.6,30.28,NW,304,4.0,8.0,88,0.00,,,0.00,Wunderground v.1.15,2013-01-26 03:24:00,
2013-01-25 22:25:00,32.8,29.6,30.28,WNW,290,5.0,8.0,88,0.00,,,0.00,Wunderground v.1.15,2013-01-26 03:25:00,
2013-01-25 22:26:00,32.9,29.5,30.28,West,269,6.0,8.0,87,0.00,,,0.00,Wunderground v.1.15,2013-01-26 03:26:00,
2013-01-25 22:27:00,33.0,29.6,30.28,WSW,254,6.0,9.0,87,0.00,,,0.00,Wunderground v.1.15,2013-01-26 03:27:00,
2013-01-25 22:29:00,33.1,29.7,30.28,West,265,5.0,9.0,87,0.00,,,0.00,Wunderground v.1.15,2013-01-26 03:29:00,
2013-01-25 22:30:00,33.1,29.7,30.28,WNW,289,4.0,4.0,87,0.00,,,0.00,Wunderground v.1.15,2013-01-26 03:30:00,
2013-01-25 22:32:00,33.2,29.8,30.28,WNW,282,4.0,10.0,87,0.00,,,0.00,Wunderground v.1.15,2013-01-26 03:32:00,
2013-01-25 22:33:00,33.2,29.8,30.28,WNW,298,5.0,10.0,87,0.00,,,0.00,Wunderground v.1.15,2013-01-26 03:33:00,
2013-01-25 22:35:00,33.1,29.7,30.28,WNW,293,4.0,10.0,87,0.00,,,0.00,Wunderground v.1.15,2013-01-26 03:35:00,
2013-01-25 22:36:00,33.2,29.8,30.28,NW,316,4.0,10.0,87,0.00,,,0.00,Wunderground v.1.15,2013-01-26 03:36:00,
2013-01-25 22:38:00,33.2,29.8,30.28,NW,319,4.0,10.0,87,0.00,,,0.00,Wunderground v.1.15,2013-01-26 03:38:00,
2013-01-25 22:40:00,33.3,29.8,30.28,West,276,3.0,5.0,87,0.00,,,0.00,Wunderground v.1.15,2013-01-26 03:40:00,
2013-01-25 22:41:00,33.3,29.8,30.28,West,261,4.0,5.0,87,0.00,,,0.00,Wunderground v.1.15,2013-01-26 03:41:00,
2013-01-25 22:43:00,33.3,29.6,30.28,WSW,248,8.0,8.0,86,0.00,,,0.00,Wunderground v.1.15,2013-01-26 03:43:00,
2013-01-25 22:46:00,33.3,29.6,30.28,West,269,3.0,8.0,86,0.00,,,0.00,Wunderground v.1.15,2013-01-26 03:46:00,
2013-01-25 22:48:00,33.3,29.8,30.28,WNW,295,8.0,11.0,87,0.00,,,0.00,Wunderground v.1.15,2013-01-26 03:48:00,
2013-01-25 22:51:00,33.3,29.8,30.28,West,268,10.0,13.0,87,0.00,,,0.00,Wunderground v.1.15,2013-01-26 03:51:00,
2013-01-25 22:53:00,33.2,29.8,30.28,WNW,296,3.0,13.0,87,0.00,,,0.00,Wunderground v.1.15,2013-01-26 03:53:00,
2013-01-25 22:56:00,33.3,29.8,30.28,WSW,247,2.0,13.0,87,0.00,,,0.00,Wunderground v.1.15,2013-01-26 03:56:00,
2013-01-25 22:57:00,33.3,29.8,30.28,WSW,245,1.0,13.0,87,0.00,,,0.00,Wunderground v.1.15,2013-01-26 03:57:00,
2013-01-25 22:58:00,33.3,29.8,30.28,WSW,243,1.0,13.0,87,0.00,,,0.00,Wunderground v.1.15,2013-01-26 03:58:00,
2013-01-25 23:02:00,33.2,29.8,30.28,WSW,253,3.0,9.0,87,0.00,,,0.00,Wunderground v.1.15,2013-01-26 04:02:00,
2013-01-25 23:03:00,33.2,29.8,30.28,WNW,300,6.0,9.0,87,0.00,,,0.00,Wunderground v.1.15,2013-01-26 04:03:00,
2013-01-25 23:04:00,33.3,29.8,30.28,WNW,292,9.0,10.0,87,0.00,,,0.00,Wunderground v.1.15,2013-01-26 04:04:00,
2013-01-25 23:07:00,33.3,29.8,30.28,West,272,3.0,10.0,87,0.00,,,0.00,Wunderground v.1.15,2013-01-26 04:07:00,
2013-01-25 23:08:00,33.3,29.8,30.28,SSW,211,3.0,10.0,87,0.00,,,0.00,Wunderground v.1.15,2013-01-26 04:08:00,
2013-01-25 23:09:00,33.3,29.8,30.28,West,259,2.0,10.0,87,0.00,,,0.00,Wunderground v.1.15,2013-01-26 04:09:00,
2013-01-25 23:12:00,33.3,29.8,30.28,West,264,1.0,5.0,87,0.00,,,0.00,Wunderground v.1.15,2013-01-26 04:12:00,
2013-01-25 23:13:00,33.3,29.8,30.28,WNW,290,3.0,5.0,87,0.00,,,0.00,Wunderground v.1.15,2013-01-26 04:13:00,
2013-01-25 23:15:00,33.3,29.6,30.28,WSW,238,2.0,5.0,86,0.00,,,0.00,Wunderground v.1.15,2013-01-26 04:15:00,
2013-01-25 23:17:00,33.3,29.6,30.28,WNW,284,5.0,6.0,86,0.00,,,0.00,Wunderground v.1.15,2013-01-26 04:17:00,
2013-01-25 23:19:00,33.3,29.6,30.28,West,270,3.0,6.0,86,0.00,,,0.00,Wunderground v.1.15,2013-01-26 04:19:00,
2013-01-25 23:20:00,33.3,29.6,30.28,West,263,4.0,7.0,86,0.00,,,0.00,Wunderground v.1.15,2013-01-26 04:20:00,
2013-01-25 23:22:00,33.3,29.8,30.28,West,278,3.0,7.0,87,0.00,,,0.00,Wunderground v.1.15,2013-01-26 04:22:00,
2013-01-25 23:24:00,33.3,29.8,30.28,West,267,2.0,7.0,87,0.00,,,0.00,Wunderground v.1.15,2013-01-26 04:24:00,
2013-01-25 23:25:00,33.3,29.8,30.28,WNW,290,5.0,10.0,87,0.00,,,0.00,Wunderground v.1.15,2013-01-26 04:25:00,
2013-01-25 23:28:00,33.3,29.8,30.28,WSW,252,1.0,10.0,87,0.00,,,0.00,Wunderground v.1.15,2013-01-26 04:28:00,
2013-01-25 23:29:00,33.3,29.8,30.28,NW,311,1.0,10.0,87,0.00,,,0.00,Wunderground v.1.15,2013-01-26 04:29:00,
2013-01-25 23:30:00,33.3,29.6,30.28,West,275,2.0,6.0,86,0.00,,,0.00,Wunderground v.1.15,2013-01-26 04:30:00,
2013-01-25 23:33:00,33.3,29.8,30.28,WNW,291,4.0,6.0,87,0.00,,,0.00,Wunderground v.1.15,2013-01-26 04:33:00,
2013-01-25 23:34:00,33.3,29.8,30.28,West,279,3.0,6.0,87,0.00,,,0.00,Wunderground v.1.15,2013-01-26 04:34:00,
2013-01-25 23:35:00,33.3,29.8,30.28,WSW,254,1.0,6.0,87,0.00,,,0.00,Wunderground v.1.15,2013-01-26 04:35:00,
2013-01-25 23:36:00,33.3,29.8,30.28,WSW,252,5.0,7.0,87,0.00,,,0.00,Wunderground v.1.15,2013-01-26 04:36:00,
2013-01-25 23:38:00,33.3,29.6,30.28,WNW,301,4.0,7.0,86,0.00,,,0.00,Wunderground v.1.15,2013-01-26 04:38:00,
2013-01-25 23:39:00,33.3,29.6,30.28,WNW,292,2.0,7.0,86,0.00,,,0.00,Wunderground v.1.15,2013-01-26 04:39:00,
2013-01-25 23:40:00,33.3,29.6,30.28,West,271,2.0,3.0,86,0.00,,,0.00,Wunderground v.1.15,2013-01-26 04:40:00,
2013-01-25 23:41:00,33.3,29.6,30.28,SW,229,2.0,3.0,86,0.00,,,0.00,Wunderground v.1.15,2013-01-26 04:41:00,
2013-01-25 23:43:00,33.3,29.6,30.28,NW,310,2.0,4.0,86,0.00,,,0.00,Wunderground v.1.15,2013-01-26 04:43:00,
2013-01-25 23:44:00,33.3,29.6,30.28,WNW,298,4.0,4.0,86,0.00,,,0.00,Wunderground v.1.15,2013-01-26 04:44:00,
2013-01-25 23:46:00,33.3,29.6,30.28,WNW,294,0.0,4.0,86,0.00,,,0.00,Wunderground v.1.15,2013-01-26 04:46:00,
2013-01-25 23:49:00,33.3,29.8,30.27,West,277,4.0,5.0,87,0.00,,,0.00,Wunderground v.1.15,2013-01-26 04:49:00,
2013-01-25 23:51:00,33.2,29.8,30.28,WNW,286,3.0,3.0,87,0.00,,,0.00,Wunderground v.1.15,2013-01-26 04:51:00,
2013-01-25 23:54:00,33.2,29.8,30.27,SSW,196,0.0,3.0,87,0.00,,,0.00,Wunderground v.1.15,2013-01-26 04:54:00,
2013-01-25 23:56:00,33.2,29.5,30.28,WSW,257,0.0,3.0,86,0.00,,,0.00,Wunderground v.1.15,2013-01-26 04:56:00,